| time (UTC) | temp C | wind direction | speed KPH | gust KPH | rain 1hr cm | rain 24hr cm | rain mn cm | humidity % | barometer mb |
| 20260906065402 | 18 | 73 | 3.2 | 6.4 | 0.00 | 1.98 | 0.00 | 86 | 977.0 |
| 20260906065305 | 18 | 72 | 3.2 | 6.4 | 0.00 | 1.98 | 0.00 | 86 | 977.0 |
| 20260906065201 | 18 | 72 | 3.2 | 6.4 | 0.00 | 1.98 | 0.00 | 86 | 977.0 |
| 20260906065102 | 18 | 68 | 3.2 | 6.4 | 0.00 | 1.98 | 0.00 | 86 | 977.0 |
| 20260906065002 | 18 | 76 | 3.2 | 6.4 | 0.00 | 1.98 | 0.00 | 86 | 977.0 |
| 20260906064902 | 18 | 76 | 3.2 | 6.4 | 0.00 | 1.98 | 0.00 | 86 | 977.0 |
| 20260906064802 | 18 | 76 | 3.2 | 6.4 | 0.00 | 1.98 | 0.00 | 86 | 977.0 |
| 20260906064702 | 18 | 76 | 3.2 | 6.4 | 0.00 | 1.98 | 0.00 | 86 | 977.0 |
| 20260906064602 | 18 | 76 | 3.2 | 6.4 | 0.00 | 1.98 | 0.00 | 86 | 977.0 |
| 20260906064501 | 18 | 76 | 3.2 | 6.4 | 0.00 | 1.98 | 0.00 | 86 | 977.0 |
| 20260906064403 | 18 | 80 | 3.2 | 8.0 | 0.00 | 1.98 | 0.00 | 86 | 977.0 |
| 20260906064301 | 18 | 73 | 3.2 | 8.0 | 0.00 | 1.98 | 0.00 | 86 | 977.0 |
| 20260906064202 | 18 | 73 | 4.8 | 8.0 | 0.00 | 1.98 | 0.00 | 86 | 977.0 |
| 20260906064102 | 18 | 73 | 4.8 | 8.0 | 0.00 | 1.98 | 0.00 | 86 | 977.0 |
| 20260906064001 | 18 | 73 | 4.8 | 8.0 | 0.00 | 1.98 | 0.00 | 86 | 976.9 |
| 20260906063901 | 18 | 73 | 4.8 | 8.0 | 0.00 | 1.98 | 0.00 | 86 | 976.9 |
| 20260906063800 | 18 | 71 | 4.8 | 9.7 | 0.00 | 1.98 | 0.00 | 86 | 976.9 |
| 20260906063703 | 18 | 72 | 4.8 | 9.7 | 0.00 | 1.98 | 0.00 | 86 | 976.8 |
| 20260906063601 | 18 | 74 | 4.8 | 9.7 | 0.00 | 1.98 | 0.00 | 86 | 976.8 |
| 20260906063501 | 18 | 75 | 4.8 | 9.7 | 0.00 | 1.98 | 0.00 | 86 | 976.8 |
| 20260906063401 | 18 | 71 | 4.8 | 9.7 | 0.00 | 1.98 | 0.00 | 86 | 976.8 |
| 20260906063302 | 18 | 67 | 4.8 | 9.7 | 0.00 | 1.98 | 0.00 | 86 | 976.8 |
| 20260906063201 | 18 | 77 | 4.8 | 9.7 | 0.00 | 1.98 | 0.00 | 86 | 976.9 |
| 20260906063102 | 18 | 77 | 4.8 | 9.7 | 0.00 | 1.98 | 0.00 | 86 | 976.9 |
| 20260906063002 | 18 | 75 | 4.8 | 9.7 | 0.00 | 1.98 | 0.00 | 86 | 976.9 |
| 20260906062902 | 18 | 71 | 4.8 | 9.7 | 0.00 | 1.98 | 0.00 | 86 | 976.9 |
| 20260906062801 | 18 | 73 | 4.8 | 8.0 | 0.00 | 1.98 | 0.00 | 87 | 976.9 |
| 20260906062701 | 18 | 72 | 4.8 | 8.0 | 0.00 | 1.98 | 0.00 | 87 | 976.9 |
| 20260906062601 | 18 | 73 | 4.8 | 8.0 | 0.00 | 1.98 | 0.00 | 87 | 976.9 |
| 20260906062502 | 18 | 75 | 4.8 | 8.0 | 0.00 | 1.98 | 0.00 | 87 | 976.9 |
| 20260906062402 | 18 | 75 | 4.8 | 8.0 | 0.00 | 1.98 | 0.00 | 87 | 976.9 |
| 20260906062305 | 19 | 76 | 3.2 | 6.4 | 0.00 | 1.98 | 0.00 | 87 | 976.9 |
| 20260906062202 | 19 | 77 | 3.2 | 6.4 | 0.00 | 1.98 | 0.00 | 87 | 977.0 |
| 20260906062101 | 18 | 78 | 3.2 | 6.4 | 0.00 | 1.98 | 0.00 | 87 | 977.0 |
| 20260906062002 | 19 | 63 | 3.2 | 6.4 | 0.00 | 1.98 | 0.00 | 87 | 977.0 |
| 20260906061900 | 19 | 75 | 3.2 | 6.4 | 0.00 | 1.98 | 0.00 | 87 | 977.0 |
| 20260906061802 | 19 | 76 | 3.2 | 6.4 | 0.00 | 1.98 | 0.00 | 87 | 977.0 |
| 20260906061702 | 19 | 77 | 3.2 | 4.8 | 0.00 | 1.98 | 0.00 | 87 | 977.0 |
| 20260906061602 | 19 | 78 | 3.2 | 4.8 | 0.00 | 1.98 | 0.00 | 88 | 977.1 |
| 20260906061502 | 19 | 78 | 3.2 | 4.8 | 0.00 | 1.98 | 0.00 | 88 | 977.1 |
| 20260906061401 | 19 | 78 | 3.2 | 4.8 | 0.00 | 1.98 | 0.00 | 88 | 977.1 |
| 20260906061301 | 19 | 79 | 3.2 | 6.4 | 0.00 | 1.98 | 0.00 | 88 | 977.2 |
| 20260906061202 | 19 | 70 | 3.2 | 6.4 | 0.00 | 1.98 | 0.00 | 88 | 977.2 |
| 20260906061101 | 19 | 70 | 3.2 | 6.4 | 0.00 | 1.98 | 0.00 | 88 | 977.1 |
| 20260906061001 | 19 | 70 | 3.2 | 6.4 | 0.00 | 1.98 | 0.00 | 88 | 977.1 |
| 20260906060902 | 19 | 70 | 3.2 | 6.4 | 0.00 | 1.98 | 0.00 | 88 | 977.2 |
| 20260906060803 | 19 | 70 | 3.2 | 6.4 | 0.00 | 1.98 | 0.00 | 88 | 977.2 |
| 20260906060702 | 19 | 70 | 3.2 | 6.4 | 0.00 | 1.98 | 0.00 | 88 | 977.2 |
| 20260906060601 | 19 | 70 | 3.2 | 6.4 | 0.00 | 1.98 | 0.00 | 88 | 977.2 |
| 20260906060502 | 19 | 70 | 3.2 | 6.4 | 0.00 | 1.98 | 0.00 | 88 | 977.1 |
| 20260906060402 | 19 | 70 | 3.2 | 6.4 | 0.00 | 1.98 | 0.00 | 88 | 977.1 |
| 20260906060301 | 19 | 80 | 3.2 | 6.4 | 0.00 | 1.98 | 0.00 | 88 | 977.1 |
| 20260906060202 | 19 | 76 | 3.2 | 6.4 | 0.00 | 1.98 | 0.00 | 88 | 977.1 |
| 20260906060002 | 19 | 74 | 3.2 | 6.4 | 0.00 | 1.98 | 0.00 | 88 | 977.0 |
| 20260906055901 | 19 | 72 | 3.2 | 6.4 | 0.00 | 1.98 | 0.00 | 88 | 977.0 |
| 20260906055802 | 19 | 72 | 3.2 | 6.4 | 0.00 | 1.98 | 0.00 | 88 | 976.9 |
| 20260906055702 | 19 | 72 | 3.2 | 6.4 | 0.00 | 1.98 | 0.00 | 88 | 977.0 |
| 20260906055602 | 19 | 72 | 3.2 | 6.4 | 0.00 | 1.98 | 0.00 | 88 | 976.9 |
| 20260906055502 | 19 | 72 | 3.2 | 6.4 | 0.00 | 1.98 | 0.00 | 88 | 976.9 |
| 20260906055402 | 19 | 77 | 3.2 | 8.0 | 0.00 | 1.98 | 0.00 | 88 | 976.9 |
| 20260906055301 | 19 | 77 | 3.2 | 8.0 | 0.00 | 1.98 | 0.00 | 88 | 976.9 |
| 20260906055200 | 19 | 77 | 3.2 | 8.0 | 0.00 | 1.98 | 0.00 | 88 | 976.9 |
| 20260906055102 | 19 | 70 | 3.2 | 8.0 | 0.00 | 1.98 | 0.00 | 88 | 976.9 |
| 20260906055002 | 19 | 76 | 3.2 | 8.0 | 0.00 | 1.98 | 0.00 | 88 | 976.9 |
| 20260906054902 | 19 | 78 | 3.2 | 8.0 | 0.00 | 1.98 | 0.00 | 88 | 976.9 |
| 20260906054803 | 19 | 78 | 3.2 | 8.0 | 0.00 | 1.98 | 0.00 | 88 | 976.9 |
| 20260906054702 | 19 | 75 | 3.2 | 8.0 | 0.00 | 1.98 | 0.00 | 88 | 976.9 |
| 20260906054601 | 19 | 75 | 3.2 | 8.0 | 0.00 | 1.98 | 0.00 | 88 | 976.9 |
| 20260906054502 | 19 | 69 | 1.6 | 8.0 | 0.00 | 1.98 | 0.00 | 89 | 976.9 |
| 20260906054401 | 19 | 73 | 1.6 | 4.8 | 0.00 | 1.98 | 0.00 | 89 | 976.9 |
| 20260906054302 | 19 | 73 | 1.6 | 4.8 | 0.00 | 1.98 | 0.00 | 89 | 976.9 |
| 20260906054200 | 19 | 73 | 1.6 | 4.8 | 0.00 | 1.98 | 0.00 | 89 | 976.9 |
| 20260906054059 | 19 | 73 | 1.6 | 4.8 | 0.00 | 1.98 | 0.00 | 89 | 976.9 |
| 20260906053958 | 19 | 73 | 1.6 | 4.8 | 0.00 | 1.98 | 0.00 | 89 | 976.9 |
| 20260906053900 | 19 | 73 | 1.6 | 4.8 | 0.00 | 1.98 | 0.00 | 89 | 976.9 |
| 20260906053759 | 19 | 73 | 1.6 | 4.8 | 0.00 | 1.98 | 0.00 | 88 | 976.9 |
| 20260906053659 | 19 | 73 | 1.6 | 4.8 | 0.00 | 1.98 | 0.00 | 88 | 976.9 |
| 20260906053558 | 19 | 73 | 3.2 | 4.8 | 0.00 | 1.98 | 0.00 | 88 | 976.9 |
| 20260906053455 | 19 | 73 | 3.2 | 4.8 | 0.00 | 1.98 | 0.00 | 88 | 976.8 |
| 20260906053357 | 19 | 73 | 3.2 | 4.8 | 0.00 | 1.98 | 0.00 | 88 | 976.8 |
| 20260906053256 | 19 | 71 | 3.2 | 4.8 | 0.00 | 1.98 | 0.00 | 88 | 976.8 |
| 20260906053156 | 19 | 71 | 3.2 | 6.4 | 0.00 | 1.98 | 0.00 | 88 | 976.8 |
| 20260906053057 | 20 | 71 | 3.2 | 6.4 | 0.00 | 1.98 | 0.00 | 88 | 976.8 |
| 20260906052955 | 20 | 71 | 3.2 | 9.7 | 0.00 | 1.98 | 0.00 | 88 | 976.7 |
| 20260906052854 | 20 | 67 | 3.2 | 9.7 | 0.00 | 1.98 | 0.00 | 88 | 976.8 |
| 20260906052751 | 20 | 67 | 3.2 | 9.7 | 0.00 | 1.98 | 0.00 | 88 | 976.8 |
| 20260906052651 | 20 | 67 | 3.2 | 9.7 | 0.00 | 1.98 | 0.00 | 88 | 976.8 |
| 20260906052549 | 20 | 66 | 3.2 | 9.7 | 0.00 | 1.98 | 0.00 | 88 | 976.8 |
| 20260906052449 | 20 | 83 | 3.2 | 9.7 | 0.00 | 1.98 | 0.00 | 88 | 976.8 |
| 20260906052347 | 20 | 83 | 3.2 | 9.7 | 0.00 | 1.98 | 0.00 | 88 | 976.7 |
| 20260906052247 | 20 | 76 | 3.2 | 9.7 | 0.00 | 1.98 | 0.00 | 88 | 976.8 |
| 20260906052146 | 20 | 83 | 3.2 | 9.7 | 0.00 | 1.98 | 0.00 | 88 | 976.7 |
| 20260906052044 | 20 | 70 | 3.2 | 9.7 | 0.00 | 1.98 | 0.00 | 88 | 976.7 |
| 20260906051945 | 20 | 69 | 3.2 | 6.4 | 0.00 | 1.98 | 0.00 | 89 | 976.7 |
| 20260906051845 | 20 | 84 | 3.2 | 6.4 | 0.00 | 1.98 | 0.00 | 89 | 976.7 |
| 20260906051745 | 20 | 76 | 1.6 | 4.8 | 0.00 | 1.98 | 0.00 | 90 | 976.7 |
| 20260906051644 | 20 | 77 | 1.6 | 4.8 | 0.00 | 1.98 | 0.00 | 90 | 976.8 |
| 20260906051541 | 20 | 77 | 1.6 | 4.8 | 0.00 | 1.98 | 0.00 | 90 | 976.7 |
| 20260906051443 | 20 | 77 | 1.6 | 4.8 | 0.00 | 1.98 | 0.00 | 90 | 976.8 |
| 20260906051339 | 20 | 77 | 1.6 | 4.8 | 0.00 | 1.98 | 0.00 | 90 | 976.8 |
| 20260906051240 | 20 | 77 | 1.6 | 4.8 | 0.00 | 1.98 | 0.00 | 90 | 976.7 |
| 20260906051138 | 20 | 77 | 1.6 | 4.8 | 0.00 | 1.98 | 0.00 | 90 | 976.7 |
| 20260906051035 | 20 | 77 | 1.6 | 4.8 | 0.00 | 1.98 | 0.00 | 90 | 976.7 |
| 20260906050936 | 20 | 77 | 1.6 | 4.8 | 0.00 | 1.98 | 0.00 | 90 | 976.7 |
| 20260906050834 | 20 | 77 | 1.6 | 4.8 | 0.00 | 1.98 | 0.00 | 90 | 976.7 |
| 20260906050733 | 20 | 77 | 1.6 | 4.8 | 0.00 | 1.98 | 0.00 | 90 | 976.7 |
| 20260906050630 | 20 | 77 | 1.6 | 4.8 | 0.00 | 1.98 | 0.00 | 89 | 976.7 |
| 20260906050529 | 20 | 77 | 1.6 | 4.8 | 0.00 | 1.98 | 0.00 | 89 | 976.6 |
| 20260906050430 | 20 | 77 | 1.6 | 3.2 | 0.00 | 1.98 | 0.00 | 89 | 976.7 |
| 20260906050330 | 20 | 77 | 1.6 | 4.8 | 0.00 | 1.98 | 0.00 | 89 | 976.6 |
| 20260906050229 | 20 | 77 | 1.6 | 4.8 | 0.00 | 1.98 | 0.00 | 88 | 976.6 |
| 20260906050129 | 20 | 77 | 1.6 | 4.8 | 0.00 | 1.98 | 0.00 | 88 | 976.6 |
| 20260906050031 | 20 | 77 | 1.6 | 4.8 | 0.00 | 1.98 | 0.00 | 88 | 976.6 |
| 20260906045931 | 20 | 77 | 3.2 | 4.8 | 0.00 | 1.98 | 0.00 | 87 | 976.6 |
| 20260906045830 | 20 | 77 | 3.2 | 8.0 | 0.00 | 1.98 | 0.00 | 87 | 976.6 |
| 20260906045730 | 20 | 77 | 3.2 | 8.0 | 0.00 | 1.98 | 0.00 | 87 | 976.6 |
| 20260906045629 | 20 | 77 | 3.2 | 8.0 | 0.00 | 1.98 | 0.00 | 87 | 976.6 |
| 20260906045529 | 20 | 77 | 3.2 | 8.0 | 0.00 | 1.98 | 0.00 | 87 | 976.5 |
| 20260906045431 | 20 | 77 | 3.2 | 8.0 | 0.00 | 1.98 | 0.00 | 87 | 976.5 |
| 20260906045330 | 20 | 77 | 3.2 | 8.0 | 0.00 | 1.98 | 0.00 | 87 | 976.6 |
| 20260906045230 | 20 | 74 | 3.2 | 8.0 | 0.00 | 1.98 | 0.00 | 87 | 976.5 |
| 20260906045129 | 20 | 74 | 3.2 | 8.0 | 0.00 | 1.98 | 0.00 | 87 | 976.5 |
| 20260906045029 | 20 | 78 | 4.8 | 9.7 | 0.00 | 1.98 | 0.00 | 87 | 976.6 |
| 20260906044929 | 20 | 68 | 4.8 | 9.7 | 0.00 | 1.98 | 0.00 | 87 | 976.5 |
| 20260906044828 | 20 | 68 | 4.8 | 9.7 | 0.00 | 1.98 | 0.00 | 87 | 976.5 |
| 20260906044732 | 20 | 69 | 4.8 | 9.7 | 0.00 | 1.98 | 0.00 | 87 | 976.5 |
| 20260906044630 | 20 | 68 | 4.8 | 9.7 | 0.00 | 1.98 | 0.00 | 87 | 976.5 |
| 20260906044528 | 21 | 68 | 4.8 | 9.7 | 0.00 | 1.98 | 0.00 | 87 | 976.5 |
| 20260906044430 | 21 | 68 | 4.8 | 9.7 | 0.00 | 1.98 | 0.00 | 87 | 976.5 |
| 20260906044330 | 21 | 75 | 4.8 | 9.7 | 0.00 | 1.98 | 0.00 | 87 | 976.5 |
| 20260906044229 | 21 | 75 | 4.8 | 9.7 | 0.00 | 1.98 | 0.00 | 88 | 976.5 |
| 20260906044129 | 21 | 75 | 3.2 | 9.7 | 0.00 | 1.98 | 0.00 | 88 | 976.4 |
| 20260906044030 | 21 | 69 | 3.2 | 8.0 | 0.00 | 1.98 | 0.00 | 88 | 976.4 |
| 20260906043928 | 21 | 77 | 3.2 | 8.0 | 0.00 | 1.98 | 0.00 | 88 | 976.4 |
| 20260906043830 | 21 | 70 | 3.2 | 8.0 | 0.00 | 1.98 | 0.00 | 89 | 976.4 |
| 20260906043729 | 21 | 94 | 3.2 | 8.0 | 0.00 | 1.98 | 0.00 | 89 | 976.4 |
| 20260906043629 | 21 | 74 | 3.2 | 6.4 | 0.00 | 1.98 | 0.00 | 89 | 976.4 |
| 20260906043530 | 21 | 74 | 3.2 | 8.0 | 0.00 | 1.98 | 0.00 | 89 | 976.4 |
| 20260906043429 | 21 | 70 | 3.2 | 8.0 | 0.00 | 1.98 | 0.00 | 89 | 976.4 |
| 20260906043330 | 21 | 70 | 3.2 | 8.0 | 0.00 | 1.98 | 0.00 | 90 | 976.4 |
| 20260906043230 | 21 | 70 | 3.2 | 8.0 | 0.00 | 1.98 | 0.00 | 90 | 976.4 |
| 20260906043130 | 21 | 85 | 3.2 | 8.0 | 0.00 | 1.98 | 0.00 | 90 | 976.3 |
| 20260906043029 | 21 | 70 | 4.8 | 8.0 | 0.00 | 1.98 | 0.00 | 90 | 976.4 |
| 20260906042930 | 21 | 79 | 4.8 | 9.7 | 0.00 | 1.98 | 0.00 | 90 | 976.3 |
| 20260906042830 | 21 | 73 | 4.8 | 11.3 | 0.00 | 1.98 | 0.00 | 90 | 976.3 |
| 20260906042730 | 21 | 72 | 4.8 | 11.3 | 0.00 | 1.98 | 0.00 | 90 | 976.2 |
| 20260906042628 | 21 | 73 | 4.8 | 11.3 | 0.00 | 1.98 | 0.00 | 90 | 976.3 |
| 20260906042530 | 21 | 71 | 4.8 | 11.3 | 0.00 | 1.98 | 0.00 | 90 | 976.3 |
| 20260906042429 | 21 | 76 | 4.8 | 11.3 | 0.00 | 1.98 | 0.00 | 90 | 976.3 |
| 20260906042329 | 21 | 78 | 4.8 | 11.3 | 0.00 | 1.98 | 0.00 | 91 | 976.3 |
| 20260906042229 | 21 | 72 | 4.8 | 11.3 | 0.00 | 1.98 | 0.00 | 91 | 976.3 |
| 20260906042130 | 21 | 70 | 4.8 | 11.3 | 0.00 | 1.98 | 0.00 | 91 | 976.2 |
| 20260906042030 | 21 | 82 | 4.8 | 11.3 | 0.00 | 1.98 | 0.00 | 91 | 976.2 |
| 20260906041929 | 21 | 76 | 4.8 | 11.3 | 0.00 | 1.98 | 0.00 | 91 | 976.2 |
| 20260906041829 | 21 | 73 | 4.8 | 11.3 | 0.00 | 1.98 | 0.00 | 91 | 976.2 |
| 20260906041729 | 21 | 77 | 4.8 | 11.3 | 0.00 | 1.98 | 0.00 | 92 | 976.2 |
| 20260906041629 | 21 | 75 | 4.8 | 11.3 | 0.00 | 1.98 | 0.00 | 92 | 976.2 |
| 20260906041530 | 21 | 72 | 4.8 | 11.3 | 0.00 | 1.98 | 0.00 | 92 | 976.2 |
| 20260906041431 | 21 | 78 | 4.8 | 11.3 | 0.00 | 1.98 | 0.00 | 92 | 976.2 |
| 20260906041331 | 21 | 70 | 4.8 | 11.3 | 0.00 | 1.98 | 0.00 | 92 | 976.2 |
| 20260906041229 | 21 | 70 | 4.8 | 11.3 | 0.00 | 1.98 | 0.00 | 92 | 976.3 |
| 20260906041129 | 22 | 72 | 3.2 | 8.0 | 0.00 | 1.98 | 0.00 | 93 | 976.3 |
| 20260906041029 | 22 | 68 | 3.2 | 8.0 | 0.00 | 1.98 | 0.00 | 93 | 976.3 |
| 20260906040929 | 22 | 76 | 3.2 | 8.0 | 0.00 | 1.98 | 0.00 | 93 | 976.3 |
| 20260906040829 | 22 | 75 | 3.2 | 8.0 | 0.00 | 1.98 | 0.00 | 94 | 976.3 |
| 20260906040729 | 22 | 69 | 1.6 | 8.0 | 0.00 | 1.98 | 0.00 | 94 | 976.3 |
| 20260906040630 | 22 | 75 | 1.6 | 6.4 | 0.00 | 1.98 | 0.00 | 94 | 976.3 |
| 20260906040530 | 22 | 311 | 1.6 | 6.4 | 0.00 | 1.98 | 0.00 | 94 | 976.3 |
| 20260906040428 | 22 | 75 | 1.6 | 4.8 | 0.00 | 1.98 | 0.00 | 94 | 976.3 |
| 20260906040328 | 22 | 348 | 1.6 | 4.8 | 0.00 | 1.98 | 0.00 | 94 | 976.3 |
| 20260906040229 | 22 | 73 | 1.6 | 4.8 | 0.00 | 1.98 | 0.00 | 94 | 976.3 |
| 20260906040129 | 22 | 73 | 1.6 | 4.8 | 0.00 | 1.98 | 0.00 | 94 | 976.4 |
| 20260906040030 | 22 | 73 | 1.6 | 6.4 | 0.00 | 1.98 | 0.00 | 94 | 976.4 |
| 20260906035929 | 22 | 73 | 1.6 | 6.4 | 0.00 | 1.98 | 1.98 | 94 | 976.4 |
| 20260906035830 | 22 | 73 | 1.6 | 6.4 | 0.00 | 1.98 | 1.98 | 94 | 976.4 |
| 20260906035731 | 22 | 75 | 1.6 | 6.4 | 0.00 | 1.98 | 1.98 | 93 | 976.4 |
| 20260906035629 | 22 | 75 | 1.6 | 6.4 | 0.00 | 1.98 | 1.98 | 93 | 976.4 |
| 20260906035530 | 22 | 75 | 1.6 | 6.4 | 0.00 | 1.98 | 1.98 | 93 | 976.4 |
| 20260906035431 | 22 | 75 | 1.6 | 6.4 | 0.00 | 1.98 | 1.98 | 93 | 976.4 |
| 20260906035329 | 22 | 75 | 1.6 | 6.4 | 0.00 | 1.98 | 1.98 | 93 | 976.3 |
| 20260906035230 | 22 | 75 | 1.6 | 6.4 | 0.00 | 1.98 | 1.98 | 93 | 976.3 |
| 20260906035129 | 22 | 75 | 1.6 | 6.4 | 0.00 | 1.98 | 1.98 | 93 | 976.4 |
| 20260906035030 | 22 | 76 | 1.6 | 6.4 | 0.00 | 1.98 | 1.98 | 93 | 976.3 |
| 20260906034929 | 22 | 76 | 1.6 | 6.4 | 0.00 | 1.98 | 1.98 | 93 | 976.3 |
| 20260906034829 | 22 | 76 | 1.6 | 6.4 | 0.00 | 1.98 | 1.98 | 93 | 976.3 |
| 20260906034730 | 22 | 63 | 3.2 | 6.4 | 0.00 | 1.98 | 1.98 | 93 | 976.3 |
| 20260906034630 | 22 | 63 | 3.2 | 6.4 | 0.00 | 1.98 | 1.98 | 93 | 976.3 |
| 20260906034530 | 22 | 77 | 3.2 | 9.7 | 0.00 | 1.98 | 1.98 | 93 | 976.3 |
| 20260906034431 | 22 | 76 | 3.2 | 9.7 | 0.00 | 1.98 | 1.98 | 93 | 976.3 |
| 20260906034329 | 22 | 76 | 3.2 | 9.7 | 0.00 | 1.98 | 1.98 | 93 | 976.3 |
| 20260906034230 | 22 | 76 | 3.2 | 9.7 | 0.00 | 1.98 | 1.98 | 93 | 976.3 |
| 20260906034128 | 22 | 76 | 3.2 | 9.7 | 0.00 | 1.98 | 1.98 | 93 | 976.3 |
| 20260906034029 | 22 | 76 | 3.2 | 9.7 | 0.00 | 1.98 | 1.98 | 93 | 976.3 |
| 20260906033929 | 22 | 79 | 3.2 | 9.7 | 0.00 | 1.98 | 1.98 | 93 | 976.2 |
| 20260906033831 | 22 | 79 | 3.2 | 9.7 | 0.00 | 1.98 | 1.98 | 93 | 976.2 |
| 20260906033730 | 22 | 74 | 3.2 | 9.7 | 0.00 | 1.98 | 1.98 | 93 | 976.2 |
| 20260906033629 | 22 | 79 | 3.2 | 9.7 | 0.00 | 1.98 | 1.98 | 93 | 976.2 |
| 20260906033528 | 22 | 74 | 3.2 | 9.7 | 0.00 | 1.98 | 1.98 | 93 | 976.2 |
| 20260906033429 | 22 | 74 | 4.8 | 9.7 | 0.00 | 1.98 | 1.98 | 93 | 976.2 |
| 20260906033331 | 22 | 75 | 4.8 | 9.7 | 0.00 | 1.98 | 1.98 | 93 | 976.1 |
| 20260906033230 | 22 | 72 | 4.8 | 9.7 | 0.00 | 1.98 | 1.98 | 93 | 976.2 |
| 20260906033131 | 22 | 72 | 4.8 | 9.7 | 0.00 | 1.98 | 1.98 | 93 | 976.2 |
| 20260906033031 | 22 | 72 | 4.8 | 9.7 | 0.00 | 1.98 | 1.98 | 93 | 976.1 |
| 20260906032931 | 22 | 72 | 4.8 | 9.7 | 0.00 | 1.98 | 1.98 | 93 | 976.1 |
| 20260906032830 | 22 | 70 | 4.8 | 9.7 | 0.00 | 1.98 | 1.98 | 93 | 976.2 |
| 20260906032729 | 22 | 71 | 4.8 | 9.7 | 0.00 | 1.98 | 1.98 | 93 | 976.1 |
| 20260906032629 | 22 | 75 | 4.8 | 9.7 | 0.00 | 1.98 | 1.98 | 93 | 976.2 |
| 20260906032530 | 22 | 93 | 4.8 | 8.0 | 0.00 | 1.98 | 1.98 | 93 | 976.1 |
| 20260906032429 | 22 | 69 | 3.2 | 8.0 | 0.00 | 1.98 | 1.98 | 93 | 976.1 |
| 20260906032330 | 22 | 75 | 3.2 | 8.0 | 0.00 | 1.98 | 1.98 | 93 | 976.1 |
| 20260906032230 | 22 | 75 | 3.2 | 8.0 | 0.00 | 1.98 | 1.98 | 93 | 976.1 |
| 20260906032128 | 22 | 75 | 3.2 | 8.0 | 0.00 | 1.98 | 1.98 | 93 | 976.1 |
| 20260906032029 | 22 | 74 | 3.2 | 8.0 | 0.00 | 1.98 | 1.98 | 94 | 976.0 |
| 20260906031929 | 22 | 70 | 3.2 | 11.3 | 0.00 | 1.98 | 1.98 | 93 | 976.0 |
| 20260906031829 | 22 | 77 | 3.2 | 11.3 | 0.00 | 1.98 | 1.98 | 93 | 976.0 |
| 20260906031729 | 22 | 70 | 3.2 | 11.3 | 0.00 | 1.98 | 1.98 | 93 | 976.0 |
| 20260906031631 | 22 | 76 | 3.2 | 11.3 | 0.00 | 1.98 | 1.98 | 93 | 975.9 |
| 20260906031530 | 22 | 65 | 3.2 | 11.3 | 0.00 | 1.98 | 1.98 | 94 | 976.0 |
| 20260906031430 | 22 | 75 | 3.2 | 11.3 | 0.00 | 1.98 | 1.98 | 93 | 976.0 |
| 20260906031330 | 22 | 83 | 4.8 | 11.3 | 0.00 | 1.98 | 1.98 | 93 | 976.0 |
| 20260906031229 | 22 | 63 | 4.8 | 11.3 | 0.00 | 1.98 | 1.98 | 93 | 976.0 |
| 20260906031131 | 22 | 72 | 4.8 | 11.3 | 0.00 | 1.98 | 1.98 | 93 | 975.9 |
| 20260906031030 | 22 | 70 | 4.8 | 11.3 | 0.00 | 1.98 | 1.98 | 93 | 976.0 |
| 20260906030929 | 22 | 71 | 4.8 | 9.7 | 0.00 | 1.98 | 1.98 | 93 | 976.1 |
| 20260906030829 | 22 | 68 | 4.8 | 9.7 | 0.00 | 1.98 | 1.98 | 93 | 976.1 |
| 20260906030729 | 22 | 75 | 4.8 | 11.3 | 0.00 | 1.98 | 1.98 | 93 | 976.1 |
| 20260906030630 | 22 | 89 | 4.8 | 11.3 | 0.00 | 1.98 | 1.98 | 93 | 976.1 |
| 20260906030529 | 22 | 85 | 4.8 | 11.3 | 0.00 | 1.98 | 1.98 | 93 | 976.1 |
| 20260906030430 | 22 | 77 | 4.8 | 11.3 | 0.00 | 1.98 | 1.98 | 93 | 976.1 |
| 20260906030330 | 22 | 70 | 4.8 | 11.3 | 0.00 | 1.98 | 1.98 | 93 | 976.2 |
| 20260906030229 | 22 | 73 | 4.8 | 11.3 | 0.00 | 1.98 | 1.98 | 93 | 976.2 |
| 20260906030130 | 22 | 73 | 4.8 | 11.3 | 0.00 | 1.98 | 1.98 | 93 | 976.2 |
| 20260906030030 | 22 | 77 | 4.8 | 11.3 | 0.00 | 1.98 | 1.98 | 93 | 976.2 |
| 20260906025929 | 22 | 75 | 4.8 | 11.3 | 0.00 | 1.98 | 1.98 | 93 | 976.2 |
| 20260906025828 | 22 | 45 | 4.8 | 11.3 | 0.00 | 1.98 | 1.98 | 93 | 976.2 |
| 20260906025729 | 22 | 77 | 3.2 | 11.3 | 0.00 | 1.98 | 1.98 | 93 | 976.3 |
| 20260906025628 | 22 | 59 | 3.2 | 6.4 | 0.00 | 1.98 | 1.98 | 93 | 976.3 |
| 20260906025530 | 22 | 81 | 4.8 | 8.0 | 0.00 | 1.98 | 1.98 | 93 | 976.3 |
| 20260906025430 | 22 | 74 | 4.8 | 9.7 | 0.00 | 1.98 | 1.98 | 93 | 976.2 |
| 20260906025330 | 22 | 63 | 4.8 | 9.7 | 0.00 | 1.98 | 1.98 | 93 | 976.2 |
| 20260906025230 | 22 | 83 | 4.8 | 9.7 | 0.00 | 1.98 | 1.98 | 93 | 976.3 |
| 20260906025129 | 22 | 82 | 4.8 | 9.7 | 0.00 | 1.98 | 1.98 | 93 | 976.2 |
| 20260906025029 | 22 | 82 | 4.8 | 9.7 | 0.00 | 1.98 | 1.98 | 93 | 976.3 |
| 20260906024931 | 22 | 75 | 6.4 | 9.7 | 0.00 | 1.98 | 1.98 | 93 | 976.2 |
| 20260906024830 | 22 | 67 | 6.4 | 12.9 | 0.00 | 1.98 | 1.98 | 93 | 976.2 |
| 20260906024731 | 22 | 62 | 6.4 | 12.9 | 0.00 | 1.98 | 1.98 | 93 | 976.2 |
| 20260906024630 | 22 | 72 | 6.4 | 12.9 | 0.00 | 1.98 | 1.98 | 93 | 976.2 |
| 20260906024530 | 22 | 74 | 6.4 | 14.5 | 0.00 | 1.98 | 1.98 | 93 | 976.2 |
| 20260906024431 | 22 | 72 | 8.0 | 14.5 | 0.00 | 1.98 | 1.98 | 93 | 976.2 |
| 20260906024329 | 22 | 72 | 8.0 | 16.1 | 0.00 | 1.98 | 1.98 | 93 | 976.2 |
| 20260906024230 | 22 | 77 | 8.0 | 16.1 | 0.00 | 1.98 | 1.98 | 93 | 976.1 |
| 20260906024130 | 22 | 90 | 8.0 | 16.1 | 0.00 | 1.98 | 1.98 | 93 | 976.1 |
| 20260906024029 | 22 | 77 | 8.0 | 16.1 | 0.00 | 1.98 | 1.98 | 93 | 976.2 |
| 20260906023930 | 22 | 65 | 8.0 | 16.1 | 0.00 | 1.98 | 1.98 | 93 | 976.1 |
| 20260906023828 | 22 | 74 | 8.0 | 16.1 | 0.00 | 1.98 | 1.98 | 93 | 976.1 |
| 20260906023730 | 22 | 45 | 8.0 | 16.1 | 0.00 | 1.98 | 1.98 | 93 | 976.1 |
| 20260906023628 | 22 | 60 | 6.4 | 16.1 | 0.00 | 1.98 | 1.98 | 93 | 976.1 |
| 20260906023529 | 22 | 77 | 6.4 | 16.1 | 0.00 | 1.98 | 1.98 | 93 | 976.1 |
| 20260906023428 | 22 | 60 | 6.4 | 16.1 | 0.00 | 1.98 | 1.98 | 93 | 976.1 |
| 20260906023331 | 22 | 67 | 4.8 | 14.5 | 0.00 | 1.98 | 1.98 | 93 | 976.1 |
| 20260906023231 | 22 | 61 | 4.8 | 14.5 | 0.00 | 1.98 | 1.98 | 94 | 976.0 |
| 20260906023129 | 22 | 72 | 4.8 | 12.9 | 0.00 | 1.98 | 1.98 | 94 | 976.1 |
| 20260906023030 | 22 | 75 | 4.8 | 9.7 | 0.00 | 1.98 | 1.98 | 94 | 976.0 |
| 20260906022931 | 22 | 68 | 4.8 | 9.7 | 0.00 | 1.98 | 1.98 | 94 | 976.0 |
| 20260906022830 | 22 | 87 | 4.8 | 9.7 | 0.00 | 1.98 | 1.98 | 94 | 976.0 |
| 20260906022730 | 22 | 77 | 4.8 | 9.7 | 0.00 | 1.98 | 1.98 | 94 | 975.9 |
| 20260906022630 | 22 | 79 | 4.8 | 9.7 | 0.00 | 1.98 | 1.98 | 94 | 975.9 |
| 20260906022530 | 22 | 78 | 4.8 | 9.7 | 0.00 | 1.98 | 1.98 | 94 | 975.9 |
| 20260906022430 | 22 | 71 | 4.8 | 9.7 | 0.00 | 1.98 | 1.98 | 94 | 975.9 |
| 20260906022330 | 22 | 76 | 4.8 | 9.7 | 0.00 | 1.98 | 1.98 | 94 | 975.9 |
| 20260906022228 | 22 | 71 | 4.8 | 9.7 | 0.00 | 1.98 | 1.98 | 94 | 975.9 |
| 20260906022029 | 22 | 77 | 4.8 | 9.7 | 0.00 | 1.98 | 1.98 | 94 | 975.9 |
| 20260906021930 | 22 | 71 | 4.8 | 9.7 | 0.00 | 1.98 | 1.98 | 94 | 975.9 |
| 20260906021829 | 22 | 75 | 4.8 | 9.7 | 0.00 | 1.98 | 1.98 | 94 | 975.9 |
| 20260906021729 | 22 | 79 | 4.8 | 11.3 | 0.00 | 1.98 | 1.98 | 94 | 975.9 |
| 20260906021628 | 22 | 72 | 4.8 | 11.3 | 0.00 | 1.98 | 1.98 | 94 | 975.9 |
| 20260906021528 | 22 | 74 | 4.8 | 11.3 | 0.00 | 1.98 | 1.98 | 94 | 975.9 |
| 20260906021429 | 22 | 74 | 4.8 | 11.3 | 0.00 | 1.98 | 1.98 | 94 | 975.9 |
| 20260906021329 | 22 | 78 | 4.8 | 11.3 | 0.00 | 1.98 | 1.98 | 94 | 975.9 |
| 20260906021228 | 22 | 78 | 4.8 | 11.3 | 0.00 | 1.98 | 1.98 | 94 | 975.8 |
| 20260906021130 | 22 | 78 | 4.8 | 11.3 | 0.00 | 1.98 | 1.98 | 94 | 975.8 |
| 20260906021029 | 22 | 77 | 4.8 | 11.3 | 0.00 | 1.98 | 1.98 | 94 | 975.8 |
| 20260906020929 | 22 | 75 | 4.8 | 11.3 | 0.00 | 1.98 | 1.98 | 94 | 975.8 |
| 20260906020829 | 22 | 72 | 4.8 | 11.3 | 0.00 | 1.98 | 1.98 | 94 | 975.8 |
| 20260906020731 | 22 | 68 | 4.8 | 9.7 | 0.00 | 1.98 | 1.98 | 94 | 975.9 |
| 20260906020629 | 22 | 77 | 4.8 | 9.7 | 0.00 | 1.98 | 1.98 | 94 | 975.9 |
| 20260906020530 | 22 | 72 | 4.8 | 9.7 | 0.00 | 1.98 | 1.98 | 94 | 975.9 |
| 20260906020429 | 22 | 68 | 3.2 | 9.7 | 0.00 | 1.98 | 1.98 | 94 | 975.9 |
| 20260906020328 | 22 | 74 | 3.2 | 6.4 | 0.00 | 1.98 | 1.98 | 94 | 975.9 |
| 20260906020230 | 22 | 79 | 3.2 | 8.0 | 0.00 | 1.98 | 1.98 | 94 | 975.9 |
| 20260906020130 | 22 | 72 | 3.2 | 8.0 | 0.00 | 1.98 | 1.98 | 94 | 975.9 |
| 20260906020030 | 22 | 72 | 3.2 | 8.0 | 0.00 | 1.98 | 1.98 | 94 | 975.9 |
| 20260906015930 | 22 | 75 | 3.2 | 8.0 | 0.00 | 1.98 | 1.98 | 94 | 976.0 |
| 20260906015830 | 22 | 65 | 3.2 | 8.0 | 0.00 | 1.98 | 1.98 | 94 | 976.0 |
| 20260906015730 | 23 | 67 | 3.2 | 8.0 | 0.00 | 1.98 | 1.98 | 94 | 976.0 |
| 20260906015630 | 22 | 78 | 3.2 | 8.0 | 0.00 | 1.98 | 1.98 | 94 | 976.0 |
| 20260906015529 | 23 | 78 | 4.8 | 8.0 | 0.00 | 1.98 | 1.98 | 93 | 975.9 |
| 20260906015429 | 23 | 78 | 3.2 | 8.0 | 0.00 | 1.98 | 1.98 | 93 | 975.9 |
| 20260906015330 | 23 | 78 | 3.2 | 8.0 | 0.00 | 1.98 | 1.98 | 93 | 975.9 |
| 20260906015230 | 23 | 70 | 3.2 | 8.0 | 0.00 | 1.98 | 1.98 | 93 | 975.9 |
| 20260906015128 | 23 | 78 | 3.2 | 8.0 | 0.00 | 1.98 | 1.98 | 93 | 975.9 |
| 20260906015030 | 23 | 77 | 3.2 | 8.0 | 0.00 | 1.98 | 1.98 | 93 | 975.9 |
| 20260906014930 | 23 | 81 | 3.2 | 8.0 | 0.00 | 1.98 | 1.98 | 93 | 975.9 |
| 20260906014830 | 23 | 59 | 3.2 | 8.0 | 0.00 | 1.98 | 1.98 | 93 | 975.9 |
| 20260906014729 | 23 | 77 | 3.2 | 8.0 | 0.00 | 1.98 | 1.98 | 93 | 975.9 |
| 20260906014628 | 23 | 63 | 3.2 | 6.4 | 0.00 | 1.98 | 1.98 | 93 | 975.9 |
| 20260906014530 | 23 | 74 | 3.2 | 6.4 | 0.00 | 1.98 | 1.98 | 93 | 975.9 |
| 20260906014430 | 23 | 75 | 3.2 | 6.4 | 0.00 | 1.98 | 1.98 | 93 | 975.8 |
| 20260906014329 | 23 | 75 | 3.2 | 6.4 | 0.00 | 1.98 | 1.98 | 93 | 975.7 |
| 20260906014229 | 23 | 75 | 3.2 | 6.4 | 0.00 | 1.98 | 1.98 | 93 | 975.7 |
| 20260906014131 | 23 | 75 | 3.2 | 6.4 | 0.00 | 1.98 | 1.98 | 93 | 975.7 |
| 20260906014029 | 23 | 75 | 3.2 | 6.4 | 0.00 | 1.98 | 1.98 | 93 | 975.7 |
| 20260906013930 | 23 | 76 | 3.2 | 6.4 | 0.00 | 1.98 | 1.98 | 93 | 975.7 |
| 20260906013830 | 23 | 76 | 3.2 | 6.4 | 0.00 | 1.98 | 1.98 | 93 | 975.6 |
| 20260906013730 | 23 | 76 | 3.2 | 6.4 | 0.00 | 1.98 | 1.98 | 93 | 975.7 |
| 20260906013630 | 23 | 69 | 3.2 | 6.4 | 0.00 | 1.98 | 1.98 | 93 | 975.6 |
| 20260906013530 | 23 | 92 | 3.2 | 6.4 | 0.00 | 1.98 | 1.98 | 93 | 975.6 |
| 20260906013429 | 23 | 88 | 4.8 | 6.4 | 0.00 | 1.98 | 1.98 | 93 | 975.6 |
| 20260906013329 | 23 | 76 | 4.8 | 6.4 | 0.00 | 1.98 | 1.98 | 93 | 975.5 |
| 20260906013229 | 23 | 77 | 4.8 | 8.0 | 0.00 | 1.98 | 1.98 | 93 | 975.5 |
| 20260906013129 | 23 | 84 | 4.8 | 8.0 | 0.00 | 1.98 | 1.98 | 93 | 975.5 |
| 20260906013031 | 23 | 72 | 4.8 | 9.7 | 0.00 | 1.98 | 1.98 | 93 | 975.5 |
| 20260906012929 | 23 | 94 | 4.8 | 9.7 | 0.00 | 1.98 | 1.98 | 93 | 975.5 |
| 20260906012828 | 23 | 77 | 4.8 | 9.7 | 0.00 | 1.98 | 1.98 | 93 | 975.4 |
| 20260906012728 | 23 | 76 | 4.8 | 9.7 | 0.00 | 1.98 | 1.98 | 93 | 975.5 |
| 20260906012630 | 23 | 74 | 4.8 | 9.7 | 0.00 | 1.98 | 1.98 | 93 | 975.5 |
| 20260906012529 | 23 | 77 | 4.8 | 9.7 | 0.00 | 1.98 | 1.98 | 93 | 975.6 |
| 20260906012429 | 23 | 79 | 4.8 | 9.7 | 0.00 | 1.98 | 1.98 | 93 | 975.6 |
| 20260906012329 | 23 | 67 | 3.2 | 9.7 | 0.00 | 1.98 | 1.98 | 93 | 975.5 |
| 20260906012230 | 23 | 77 | 3.2 | 9.7 | 0.00 | 1.98 | 1.98 | 93 | 975.5 |
| 20260906012129 | 23 | 70 | 3.2 | 9.7 | 0.00 | 1.98 | 1.98 | 93 | 975.5 |
| 20260906012030 | 23 | 73 | 4.8 | 9.7 | 0.00 | 1.98 | 1.98 | 93 | 975.4 |
| 20260906011928 | 23 | 86 | 4.8 | 9.7 | 0.00 | 1.98 | 1.98 | 93 | 975.5 |
| 20260906011828 | 23 | 93 | 4.8 | 9.7 | 0.00 | 1.98 | 1.98 | 93 | 975.4 |
| 20260906011729 | 23 | 67 | 4.8 | 9.7 | 0.00 | 1.98 | 1.98 | 93 | 975.4 |
| 20260906011629 | 23 | 86 | 4.8 | 9.7 | 0.00 | 1.98 | 1.98 | 93 | 975.4 |
| 20260906011530 | 23 | 77 | 4.8 | 9.7 | 0.00 | 1.98 | 1.98 | 93 | 975.4 |
| 20260906011429 | 23 | 79 | 6.4 | 9.7 | 0.00 | 1.98 | 1.98 | 93 | 975.4 |
| 20260906011330 | 23 | 72 | 6.4 | 9.7 | 0.00 | 1.98 | 1.98 | 93 | 975.3 |
| 20260906011230 | 23 | 72 | 6.4 | 9.7 | 0.00 | 1.98 | 1.98 | 93 | 975.3 |
| 20260906011130 | 23 | 71 | 6.4 | 9.7 | 0.00 | 1.98 | 1.98 | 93 | 975.2 |
| 20260906011030 | 23 | 71 | 4.8 | 9.7 | 0.00 | 1.98 | 1.98 | 93 | 975.3 |
| 20260906010929 | 23 | 71 | 4.8 | 9.7 | 0.00 | 1.98 | 1.98 | 93 | 975.2 |
| 20260906010828 | 23 | 75 | 4.8 | 9.7 | 0.00 | 1.98 | 1.98 | 93 | 975.2 |
| 20260906010728 | 23 | 84 | 4.8 | 9.7 | 0.00 | 1.98 | 1.98 | 93 | 975.2 |
| 20260906010629 | 23 | 73 | 4.8 | 9.7 | 0.00 | 1.98 | 1.98 | 93 | 975.1 |
| 20260906010529 | 23 | 65 | 4.8 | 9.7 | 0.00 | 1.98 | 1.98 | 93 | 975.0 |
| 20260906010430 | 23 | 69 | 4.8 | 9.7 | 0.00 | 1.98 | 1.98 | 93 | 975.1 |
| 20260906010328 | 23 | 69 | 4.8 | 11.3 | 0.00 | 1.98 | 1.98 | 93 | 975.1 |
| 20260906010229 | 23 | 75 | 4.8 | 11.3 | 0.00 | 1.98 | 1.98 | 93 | 975.1 |
| 20260906010129 | 23 | 75 | 4.8 | 11.3 | 0.00 | 1.98 | 1.98 | 93 | 975.0 |
| 20260906010029 | 23 | 79 | 4.8 | 11.3 | 0.00 | 1.98 | 1.98 | 93 | 975.0 |
| 20260906005929 | 23 | 73 | 4.8 | 11.3 | 0.00 | 1.98 | 1.98 | 93 | 975.0 |
| 20260906005829 | 23 | 77 | 4.8 | 11.3 | 0.00 | 1.98 | 1.98 | 94 | 975.0 |
| 20260906005728 | 23 | 77 | 4.8 | 11.3 | 0.00 | 1.98 | 1.98 | 94 | 975.0 |
| 20260906005630 | 23 | 76 | 4.8 | 11.3 | 0.00 | 1.98 | 1.98 | 94 | 975.0 |
| 20260906005530 | 23 | 77 | 4.8 | 11.3 | 0.00 | 1.98 | 1.98 | 94 | 975.0 |
| 20260906005430 | 23 | 72 | 4.8 | 9.7 | 0.00 | 1.98 | 1.98 | 94 | 974.9 |
| 20260906005325 | 23 | 68 | 4.8 | 8.0 | 0.00 | 1.98 | 1.98 | 94 | 974.9 |
| 20260906005225 | 23 | 72 | 4.8 | 8.0 | 0.00 | 1.98 | 1.98 | 94 | 974.9 |
| 20260906005126 | 23 | 72 | 4.8 | 8.0 | 0.00 | 1.98 | 1.98 | 94 | 975.0 |
| 20260906005023 | 23 | 73 | 4.8 | 11.3 | 0.00 | 1.98 | 1.98 | 94 | 975.1 |
| 20260906004922 | 23 | 72 | 4.8 | 11.3 | 0.00 | 1.98 | 1.98 | 94 | 975.2 |
| 20260906004824 | 23 | 72 | 4.8 | 11.3 | 0.00 | 1.98 | 1.98 | 94 | 975.2 |
| 20260906004724 | 23 | 72 | 4.8 | 11.3 | 0.00 | 1.98 | 1.98 | 94 | 975.1 |
| 20260906004622 | 23 | 72 | 4.8 | 11.3 | 0.00 | 1.98 | 1.98 | 94 | 975.1 |
| 20260906004523 | 23 | 70 | 4.8 | 11.3 | 0.00 | 1.98 | 1.98 | 94 | 975.0 |
| 20260906004423 | 23 | 72 | 4.8 | 11.3 | 0.00 | 1.98 | 1.98 | 94 | 975.0 |
| 20260906004323 | 23 | 65 | 4.8 | 12.9 | 0.00 | 1.98 | 1.98 | 94 | 975.0 |
| 20260906004224 | 23 | 72 | 6.4 | 12.9 | 0.00 | 1.98 | 1.98 | 94 | 974.9 |
| 20260906004119 | 23 | 65 | 6.4 | 16.1 | 0.00 | 1.98 | 1.98 | 94 | 974.9 |
| 20260906004019 | 23 | 70 | 6.4 | 16.1 | 0.00 | 1.98 | 1.98 | 94 | 975.0 |
| 20260906003920 | 23 | 68 | 6.4 | 16.1 | 0.00 | 1.98 | 1.98 | 94 | 975.1 |
| 20260906003819 | 23 | 77 | 6.4 | 16.1 | 0.00 | 1.98 | 1.98 | 95 | 975.0 |
| 20260906003720 | 23 | 75 | 6.4 | 16.1 | 0.00 | 1.98 | 1.98 | 95 | 975.0 |
| 20260906003620 | 23 | 69 | 6.4 | 16.1 | 0.00 | 1.98 | 1.98 | 95 | 975.0 |
| 20260906003519 | 23 | 67 | 6.4 | 16.1 | 0.00 | 1.98 | 1.98 | 95 | 974.9 |
| 20260906003419 | 23 | 78 | 6.4 | 16.1 | 0.00 | 1.98 | 1.98 | 95 | 974.8 |
| 20260906003319 | 23 | 68 | 6.4 | 16.1 | 0.00 | 1.98 | 1.98 | 95 | 974.8 |
| 20260906003219 | 23 | 73 | 4.8 | 16.1 | 0.00 | 1.98 | 1.98 | 96 | 974.8 |
| 20260906003120 | 23 | 69 | 4.8 | 12.9 | 0.00 | 1.98 | 1.98 | 96 | 974.8 |
| 20260906003018 | 23 | 74 | 4.8 | 12.9 | 0.00 | 1.98 | 1.98 | 96 | 974.8 |
| 20260906002920 | 23 | 82 | 4.8 | 12.9 | 0.00 | 1.98 | 1.98 | 96 | 974.8 |
| 20260906002818 | 23 | 66 | 3.2 | 12.9 | 0.00 | 1.98 | 1.98 | 96 | 974.7 |
| 20260906002719 | 23 | 70 | 3.2 | 12.9 | 0.00 | 1.98 | 1.98 | 96 | 974.6 |
| 20260906002619 | 23 | 71 | 1.6 | 11.3 | 0.00 | 1.98 | 1.98 | 96 | 974.6 |
| 20260906002518 | 23 | 68 | 1.6 | 8.0 | 0.00 | 1.98 | 1.98 | 96 | 974.5 |
| 20260906002421 | 23 | 67 | 1.6 | 8.0 | 0.00 | 1.98 | 1.98 | 96 | 974.6 |
| 20260906002320 | 23 | 65 | 1.6 | 8.0 | 0.00 | 1.98 | 1.98 | 96 | 974.5 |
| 20260906002214 | 23 | 77 | 1.6 | 8.0 | 0.00 | 1.98 | 1.98 | 96 | 974.6 |
| 20260906002115 | 23 | 72 | 1.6 | 8.0 | 0.00 | 1.98 | 1.98 | 96 | 974.6 |
| 20260906002016 | 23 | 56 | 0.0 | 8.0 | 0.00 | 1.98 | 1.98 | 96 | 974.5 |
| 20260906001915 | 23 | 68 | 0.0 | 8.0 | 0.00 | 1.98 | 1.98 | 96 | 974.6 |
| 20260906001816 | 23 | 135 | 0.0 | 3.2 | 0.00 | 1.98 | 1.98 | 96 | 974.5 |
| 20260906001714 | 23 | 135 | 0.0 | 3.2 | 0.00 | 1.98 | 1.98 | 96 | 974.5 |
| 20260906001614 | 23 | 134 | 0.0 | 3.2 | 0.00 | 1.98 | 1.98 | 96 | 974.5 |
| 20260906001516 | 23 | 135 | 0.0 | 3.2 | 0.00 | 1.98 | 1.98 | 96 | 974.5 |
| 20260906001416 | 23 | 135 | 0.0 | 3.2 | 0.00 | 1.98 | 1.98 | 96 | 974.5 |
| 20260906001316 | 23 | 135 | 0.0 | 3.2 | 0.00 | 1.98 | 1.98 | 96 | 974.5 |
| 20260906001216 | 22 | 135 | 0.0 | 3.2 | 0.00 | 1.98 | 1.98 | 96 | 974.6 |
| 20260906001115 | 22 | 135 | 0.0 | 3.2 | 0.00 | 1.98 | 1.98 | 96 | 974.5 |
| 20260906001015 | 22 | 135 | 0.0 | 3.2 | 0.00 | 1.98 | 1.98 | 96 | 974.4 |
| 20260906000915 | 22 | 135 | 0.0 | 3.2 | 0.00 | 1.98 | 1.98 | 96 | 974.4 |
| 20260906000815 | 22 | 153 | 0.0 | 3.2 | 0.00 | 1.98 | 1.98 | 96 | 974.4 |
| 20260906000715 | 22 | 153 | 0.0 | 3.2 | 0.00 | 1.98 | 1.98 | 95 | 974.4 |
| 20260906000615 | 22 | 153 | 0.0 | 1.6 | 0.00 | 1.98 | 1.98 | 95 | 974.6 |
| 20260906000515 | 22 | 153 | 0.0 | 1.6 | 0.00 | 1.98 | 1.98 | 95 | 974.6 |
| 20260906000418 | 22 | 153 | 0.0 | 1.6 | 0.00 | 1.98 | 1.98 | 95 | 974.6 |
| 20260906000311 | 22 | 153 | 0.0 | 1.6 | 0.00 | 1.98 | 1.98 | 95 | 974.6 |
| 20260906000212 | 22 | 153 | 0.0 | 1.6 | 0.00 | 1.98 | 1.98 | 95 | 974.5 |
| 20260906000110 | 22 | 153 | 1.6 | 1.6 | 0.00 | 1.98 | 1.98 | 95 | 974.6 |
| 20260906000010 | 22 | 153 | 1.6 | 3.2 | 0.00 | 1.98 | 1.98 | 95 | 974.6 |
| 20260905235911 | 22 | 153 | 1.6 | 3.2 | 0.00 | 1.98 | 1.98 | 95 | 974.6 |
| 20260905235811 | 22 | 153 | 1.6 | 3.2 | 0.00 | 1.98 | 1.98 | 95 | 974.6 |
| 20260905235710 | 22 | 153 | 1.6 | 3.2 | 0.00 | 1.98 | 1.98 | 95 | 974.6 |
| 20260905235612 | 22 | 153 | 0.0 | 3.2 | 0.00 | 1.98 | 1.98 | 95 | 974.6 |
| 20260905235511 | 22 | 153 | 0.0 | 3.2 | 0.00 | 1.98 | 1.98 | 95 | 974.5 |
| 20260905235411 | 22 | 153 | 0.0 | 3.2 | 0.00 | 1.98 | 1.98 | 95 | 974.6 |
| 20260905235310 | 22 | 153 | 0.0 | 3.2 | 0.00 | 1.98 | 1.98 | 95 | 974.5 |
| 20260905235211 | 22 | 153 | 0.0 | 3.2 | 0.00 | 1.98 | 1.98 | 95 | 974.5 |
| 20260905235112 | 22 | 153 | 0.0 | 3.2 | 0.00 | 1.98 | 1.98 | 95 | 974.6 |
| 20260905235010 | 22 | 153 | 0.0 | 1.6 | 0.00 | 1.98 | 1.98 | 95 | 974.5 |
| 20260905234911 | 22 | 153 | 0.0 | 1.6 | 0.00 | 1.98 | 1.98 | 95 | 974.6 |
| 20260905234812 | 22 | 153 | 0.0 | 1.6 | 0.00 | 1.98 | 1.98 | 95 | 974.6 |
| 20260905234712 | 22 | 153 | 0.0 | 1.6 | 0.00 | 1.98 | 1.98 | 95 | 974.6 |
| 20260905234610 | 22 | 153 | 0.0 | 1.6 | 0.00 | 1.98 | 1.98 | 95 | 974.5 |
| 20260905234512 | 22 | 153 | 0.0 | 1.6 | 0.00 | 1.98 | 1.98 | 95 | 974.4 |
| 20260905234407 | 22 | 153 | 0.0 | 1.6 | 0.00 | 1.98 | 1.98 | 94 | 974.4 |
| 20260905234308 | 22 | 153 | 0.0 | 1.6 | 0.00 | 1.98 | 1.98 | 94 | 974.3 |
| 20260905234206 | 22 | 153 | 0.0 | 1.6 | 0.00 | 1.98 | 1.98 | 94 | 974.4 |
| 20260905234108 | 22 | 153 | 0.0 | 3.2 | 0.00 | 1.98 | 1.98 | 94 | 974.3 |
| 20260905234007 | 22 | 153 | 1.6 | 4.8 | 0.00 | 1.98 | 1.98 | 94 | 974.4 |
| 20260905233907 | 22 | 153 | 1.6 | 4.8 | 0.00 | 1.98 | 1.98 | 94 | 974.3 |
| 20260905233807 | 22 | 153 | 1.6 | 4.8 | 0.00 | 1.98 | 1.98 | 94 | 974.4 |
| 20260905233708 | 22 | 153 | 1.6 | 4.8 | 0.00 | 1.98 | 1.98 | 94 | 974.3 |
| 20260905233606 | 22 | 153 | 1.6 | 4.8 | 0.00 | 1.98 | 1.98 | 94 | 974.3 |
| 20260905233508 | 22 | 153 | 1.6 | 4.8 | 0.00 | 1.98 | 1.98 | 94 | 974.4 |
| 20260905233407 | 22 | 153 | 1.6 | 4.8 | 0.00 | 1.98 | 1.98 | 94 | 974.3 |
| 20260905233308 | 22 | 153 | 0.0 | 4.8 | 0.00 | 1.98 | 1.98 | 94 | 974.3 |
| 20260905233206 | 22 | 153 | 0.0 | 4.8 | 0.00 | 1.98 | 1.98 | 94 | 974.3 |
| 20260905233107 | 22 | 153 | 0.0 | 4.8 | 0.00 | 1.98 | 1.98 | 94 | 974.3 |
| 20260905233007 | 22 | 153 | 0.0 | 3.2 | 0.00 | 1.98 | 1.98 | 94 | 974.3 |
| 20260905232906 | 22 | 153 | 0.0 | 0.0 | 0.00 | 1.98 | 1.98 | 94 | 974.4 |
| 20260905232808 | 22 | 153 | 0.0 | 0.0 | 0.00 | 1.98 | 1.98 | 94 | 974.3 |
| 20260905232707 | 22 | 153 | 0.0 | 0.0 | 0.00 | 1.98 | 1.98 | 94 | 974.3 |
| 20260905232608 | 22 | 153 | 0.0 | 0.0 | 0.00 | 1.98 | 1.98 | 94 | 974.3 |
| 20260905232504 | 22 | 153 | 0.0 | 0.0 | 0.00 | 1.98 | 1.98 | 94 | 974.4 |
| 20260905232404 | 22 | 153 | 0.0 | 0.0 | 0.00 | 1.98 | 1.98 | 94 | 974.4 |
| 20260905232305 | 22 | 153 | 0.0 | 3.2 | 0.00 | 1.98 | 1.98 | 94 | 974.4 |
| 20260905232202 | 22 | 153 | 0.0 | 3.2 | 0.00 | 1.98 | 1.98 | 94 | 974.4 |
| 20260905232103 | 22 | 153 | 0.0 | 3.2 | 0.00 | 1.98 | 1.98 | 94 | 974.4 |
| 20260905232003 | 22 | 153 | 0.0 | 3.2 | 0.00 | 1.98 | 1.98 | 94 | 974.3 |
| 20260905231902 | 22 | 153 | 0.0 | 3.2 | 0.00 | 1.98 | 1.98 | 94 | 974.4 |
| 20260905231801 | 22 | 153 | 0.0 | 3.2 | 0.00 | 1.98 | 1.98 | 93 | 974.3 |
| 20260905231701 | 22 | 153 | 0.0 | 3.2 | 0.00 | 1.98 | 1.98 | 94 | 974.3 |
| 20260905231601 | 22 | 153 | 0.0 | 3.2 | 0.00 | 1.98 | 1.98 | 93 | 974.3 |
| 20260905231501 | 22 | 153 | 0.0 | 3.2 | 0.00 | 1.98 | 1.98 | 93 | 974.3 |
| 20260905231403 | 22 | 153 | 1.6 | 3.2 | 0.00 | 1.98 | 1.98 | 93 | 974.3 |
| 20260905231301 | 22 | 153 | 1.6 | 3.2 | 0.00 | 1.98 | 1.98 | 93 | 974.3 |
| 20260905231201 | 22 | 153 | 1.6 | 4.8 | 0.00 | 1.98 | 1.98 | 93 | 974.3 |
| 20260905231102 | 22 | 153 | 1.6 | 4.8 | 0.00 | 1.98 | 1.98 | 93 | 974.3 |
| 20260905231002 | 22 | 153 | 1.6 | 4.8 | 0.00 | 1.98 | 1.98 | 92 | 974.3 |
| 20260905230901 | 22 | 153 | 1.6 | 4.8 | 0.00 | 1.98 | 1.98 | 92 | 974.3 |
| 20260905230802 | 22 | 153 | 1.6 | 4.8 | 0.00 | 1.98 | 1.98 | 93 | 974.3 |
| 20260905230702 | 22 | 153 | 1.6 | 4.8 | 0.00 | 1.98 | 1.98 | 93 | 974.3 |
| 20260905230602 | 22 | 153 | 1.6 | 4.8 | 0.00 | 1.98 | 1.98 | 93 | 974.3 |
| 20260905230501 | 22 | 153 | 1.6 | 4.8 | 0.00 | 1.98 | 1.98 | 92 | 974.4 |
| 20260905230401 | 22 | 153 | 1.6 | 4.8 | 0.00 | 1.98 | 1.98 | 92 | 974.4 |
| 20260905230302 | 22 | 153 | 1.6 | 4.8 | 0.00 | 1.98 | 1.98 | 92 | 974.4 |
| 20260905230202 | 22 | 153 | 1.6 | 4.8 | 0.00 | 1.98 | 1.98 | 92 | 974.4 |
| 20260905230101 | 22 | 153 | 1.6 | 4.8 | 0.00 | 1.98 | 1.98 | 92 | 974.5 |
| 20260905230001 | 22 | 153 | 1.6 | 8.0 | 0.00 | 1.98 | 1.98 | 92 | 974.4 |
| 20260905225901 | 22 | 153 | 1.6 | 8.0 | 0.00 | 1.98 | 1.98 | 91 | 974.4 |
| 20260905225802 | 22 | 153 | 1.6 | 8.0 | 0.00 | 1.98 | 1.98 | 91 | 974.4 |
| 20260905225702 | 22 | 153 | 1.6 | 8.0 | 0.00 | 1.98 | 1.98 | 91 | 974.4 |
| 20260905225602 | 22 | 153 | 1.6 | 9.7 | 0.00 | 1.98 | 1.98 | 91 | 974.5 |
| 20260905225502 | 22 | 153 | 3.2 | 9.7 | 0.00 | 1.98 | 1.98 | 92 | 974.6 |
| 20260905225402 | 22 | 153 | 3.2 | 9.7 | 0.00 | 1.98 | 1.98 | 92 | 974.7 |
| 20260905225305 | 22 | 153 | 3.2 | 11.3 | 0.00 | 1.98 | 1.98 | 92 | 974.8 |
| 20260905225201 | 22 | 153 | 4.8 | 11.3 | 0.00 | 1.98 | 1.98 | 92 | 974.8 |
| 20260905225103 | 22 | 153 | 4.8 | 11.3 | 0.00 | 1.98 | 1.98 | 92 | 974.9 |
| 20260905225003 | 22 | 115 | 4.8 | 11.3 | 0.00 | 1.98 | 1.98 | 91 | 974.9 |
| 20260905224902 | 22 | 231 | 4.8 | 11.3 | 0.00 | 1.98 | 1.98 | 91 | 975.0 |
| 20260905224801 | 22 | 243 | 4.8 | 11.3 | 0.00 | 1.98 | 1.98 | 91 | 975.0 |
| 20260905224701 | 22 | 243 | 6.4 | 11.3 | 0.00 | 1.98 | 1.98 | 91 | 975.1 |
| 20260905224602 | 22 | 181 | 6.4 | 12.9 | 0.00 | 1.98 | 1.98 | 91 | 975.1 |
| 20260905224501 | 22 | 287 | 6.4 | 12.9 | 0.00 | 1.98 | 1.98 | 91 | 975.3 |
| 20260905224402 | 22 | 251 | 6.4 | 16.1 | 0.00 | 1.98 | 1.98 | 91 | 975.2 |
| 20260905224301 | 22 | 249 | 6.4 | 16.1 | 0.00 | 1.98 | 1.98 | 91 | 975.2 |
| 20260905224201 | 22 | 258 | 6.4 | 16.1 | 0.00 | 1.98 | 1.98 | 92 | 975.2 |
| 20260905224101 | 22 | 273 | 6.4 | 16.1 | 0.00 | 1.98 | 1.98 | 91 | 975.2 |
| 20260905224002 | 22 | 210 | 6.4 | 16.1 | 0.00 | 1.98 | 1.98 | 92 | 975.2 |
| 20260905223901 | 22 | 240 | 6.4 | 16.1 | 0.00 | 1.98 | 1.98 | 92 | 975.1 |
| 20260905223800 | 22 | 229 | 4.8 | 16.1 | 0.00 | 1.98 | 1.98 | 92 | 975.1 |
| 20260905223659 | 22 | 271 | 4.8 | 16.1 | 0.00 | 1.98 | 1.98 | 93 | 975.1 |
| 20260905223600 | 22 | 250 | 4.8 | 16.1 | 0.00 | 1.98 | 1.98 | 93 | 975.0 |
| 20260905223459 | 22 | 265 | 3.2 | 16.1 | 0.00 | 1.98 | 1.98 | 94 | 975.0 |
| 20260905223353 | 22 | 240 | 1.6 | 12.9 | 0.00 | 1.98 | 1.98 | 94 | 975.0 |
| 20260905223253 | 22 | 222 | 1.6 | 12.9 | 0.00 | 1.98 | 1.98 | 94 | 974.9 |
| 20260905223153 | 22 | 222 | 1.6 | 8.0 | 0.08 | 1.98 | 1.98 | 94 | 975.0 |
| 20260905223054 | 22 | 206 | 0.0 | 4.8 | 0.15 | 1.98 | 1.98 | 94 | 974.9 |
| 20260905222953 | 22 | 250 | 0.0 | 4.8 | 0.23 | 1.98 | 1.98 | 93 | 974.8 |
| 20260905222850 | 22 | 105 | 0.0 | 3.2 | 0.41 | 1.98 | 1.98 | 93 | 974.7 |
| 20260905222748 | 22 | 104 | 0.0 | 3.2 | 0.53 | 1.98 | 1.98 | 93 | 974.6 |
| 20260905222647 | 22 | 104 | 0.0 | 3.2 | 0.66 | 1.98 | 1.98 | 94 | 974.5 |
| 20260905222546 | 22 | 104 | 0.0 | 3.2 | 0.81 | 1.98 | 1.98 | 94 | 974.4 |
| 20260905222447 | 22 | 104 | 0.0 | 3.2 | 0.97 | 1.98 | 1.98 | 94 | 974.4 |
| 20260905222348 | 22 | 104 | 1.6 | 3.2 | 0.97 | 1.98 | 1.98 | 94 | 974.3 |
| 20260905222246 | 22 | 104 | 1.6 | 3.2 | 1.12 | 1.98 | 1.98 | 93 | 974.3 |
| 20260905222145 | 22 | 104 | 1.6 | 3.2 | 1.22 | 1.98 | 1.98 | 93 | 974.2 |
| 20260905222043 | 22 | 104 | 1.6 | 4.8 | 1.32 | 1.98 | 1.98 | 93 | 974.2 |
| 20260905221941 | 22 | 104 | 1.6 | 4.8 | 1.37 | 1.98 | 1.98 | 93 | 974.1 |
| 20260905221838 | 22 | 104 | 1.6 | 4.8 | 1.45 | 1.98 | 1.98 | 93 | 974.2 |
| 20260905221739 | 22 | 104 | 1.6 | 4.8 | 1.50 | 1.98 | 1.98 | 93 | 974.2 |
| 20260905221638 | 22 | 104 | 1.6 | 4.8 | 1.50 | 1.98 | 1.98 | 92 | 974.2 |
| 20260905221537 | 22 | 104 | 1.6 | 4.8 | 1.52 | 1.98 | 1.98 | 92 | 974.2 |
| 20260905221435 | 22 | 104 | 1.6 | 4.8 | 1.55 | 1.98 | 1.98 | 92 | 974.2 |
| 20260905221331 | 22 | 104 | 1.6 | 4.8 | 1.55 | 1.98 | 1.98 | 92 | 974.2 |
| 20260905221229 | 22 | 104 | 1.6 | 4.8 | 1.57 | 1.98 | 1.98 | 92 | 974.1 |
| 20260905221130 | 22 | 104 | 1.6 | 4.8 | 1.57 | 1.98 | 1.98 | 92 | 974.1 |
| 20260905221029 | 22 | 298 | 1.6 | 3.2 | 1.60 | 1.98 | 1.98 | 92 | 974.2 |
| 20260905220929 | 22 | 298 | 1.6 | 3.2 | 1.60 | 1.98 | 1.98 | 91 | 974.2 |
| 20260905220830 | 22 | 298 | 1.6 | 3.2 | 1.60 | 1.98 | 1.98 | 91 | 974.3 |
| 20260905220729 | 22 | 298 | 1.6 | 3.2 | 1.68 | 1.98 | 1.98 | 91 | 974.3 |
| 20260905220631 | 22 | 298 | 1.6 | 4.8 | 1.70 | 1.98 | 1.98 | 91 | 974.3 |
| 20260905220530 | 22 | 128 | 1.6 | 4.8 | 1.78 | 1.98 | 1.98 | 91 | 974.3 |
| 20260905220429 | 22 | 129 | 1.6 | 6.4 | 1.83 | 1.98 | 1.98 | 91 | 974.3 |
| 20260905220329 | 22 | 129 | 1.6 | 6.4 | 1.93 | 1.98 | 1.98 | 90 | 974.3 |
| 20260905220230 | 22 | 129 | 1.6 | 6.4 | 1.98 | 1.98 | 1.98 | 90 | 974.2 |
| 20260905220129 | 22 | 129 | 1.6 | 6.4 | 1.98 | 1.98 | 1.98 | 90 | 974.3 |
| 20260905220030 | 22 | 129 | 1.6 | 6.4 | 1.98 | 1.98 | 1.98 | 90 | 974.2 |
| 20260905215930 | 22 | 129 | 3.2 | 6.4 | 1.98 | 1.98 | 1.98 | 89 | 974.2 |
| 20260905215830 | 22 | 129 | 3.2 | 6.4 | 1.98 | 1.98 | 1.98 | 89 | 974.3 |
| 20260905215730 | 22 | 129 | 3.2 | 6.4 | 1.98 | 1.98 | 1.98 | 88 | 974.2 |
| 20260905215628 | 22 | 129 | 3.2 | 6.4 | 1.98 | 1.98 | 1.98 | 88 | 974.3 |
| 20260905215529 | 22 | 129 | 3.2 | 8.0 | 1.98 | 1.98 | 1.98 | 88 | 974.2 |
| 20260905215430 | 22 | 218 | 3.2 | 11.3 | 1.98 | 1.98 | 1.98 | 87 | 974.2 |
| 20260905215329 | 22 | 226 | 3.2 | 11.3 | 1.98 | 1.98 | 1.98 | 87 | 974.2 |
| 20260905215229 | 22 | 226 | 4.8 | 22.5 | 1.98 | 1.98 | 1.98 | 88 | 974.2 |
| 20260905215126 | 23 | 226 | 4.8 | 22.5 | 1.98 | 1.98 | 1.98 | 87 | 974.3 |
| 20260905215027 | 23 | 226 | 4.8 | 22.5 | 1.98 | 1.98 | 1.98 | 87 | 974.3 |
| 20260905214926 | 23 | 226 | 4.8 | 22.5 | 1.98 | 1.98 | 1.98 | 86 | 974.2 |
| 20260905214825 | 23 | 226 | 4.8 | 22.5 | 1.98 | 1.98 | 1.98 | 85 | 974.1 |
| 20260905214723 | 23 | 237 | 4.8 | 22.5 | 1.98 | 1.98 | 1.98 | 84 | 974.0 |
| 20260905214617 | 22 | 210 | 6.4 | 22.5 | 1.98 | 1.98 | 1.98 | 84 | 974.0 |
| 20260905214516 | 22 | 238 | 8.0 | 22.5 | 1.98 | 1.98 | 1.98 | 85 | 974.1 |
| 20260905214417 | 22 | 310 | 8.0 | 22.5 | 1.98 | 1.98 | 1.98 | 85 | 974.1 |
| 20260905214317 | 22 | 274 | 9.7 | 22.5 | 1.98 | 1.98 | 1.98 | 86 | 974.1 |
| 20260905214217 | 22 | 23 | 11.3 | 25.7 | 1.98 | 1.98 | 1.98 | 86 | 974.1 |
| 20260905214111 | 22 | 0 | 11.3 | 25.7 | 1.98 | 1.98 | 1.98 | 85 | 974.1 |
| 20260905214011 | 22 | 315 | 11.3 | 25.7 | 1.98 | 1.98 | 1.98 | 84 | 974.1 |
| 20260905213912 | 22 | 243 | 11.3 | 25.7 | 1.98 | 1.98 | 1.98 | 82 | 973.9 |
| 20260905213810 | 22 | 226 | 12.9 | 40.2 | 1.98 | 1.98 | 1.98 | 82 | 973.9 |
| 20260905213711 | 22 | 230 | 12.9 | 40.2 | 1.98 | 1.98 | 1.98 | 82 | 973.9 |
| 20260905213604 | 22 | 202 | 12.9 | 40.2 | 1.98 | 1.98 | 1.98 | 83 | 973.9 |
| 20260905213504 | 22 | 217 | 12.9 | 40.2 | 1.98 | 1.98 | 1.98 | 81 | 973.9 |
| 20260905213405 | 22 | 215 | 12.9 | 40.2 | 1.98 | 1.98 | 1.98 | 81 | 974.1 |
| 20260905213305 | 22 | 201 | 12.9 | 40.2 | 1.98 | 1.98 | 1.98 | 81 | 974.0 |
| 20260905213204 | 22 | 188 | 12.9 | 49.9 | 1.91 | 1.91 | 1.96 | 82 | 974.1 |
| 20260905213103 | 22 | 225 | 12.9 | 49.9 | 1.83 | 1.83 | 1.88 | 80 | 973.9 |
| 20260905213002 | 23 | 155 | 12.9 | 49.9 | 1.75 | 1.75 | 1.83 | 79 | 974.1 |
| 20260905212902 | 23 | 209 | 12.9 | 49.9 | 1.75 | 1.75 | 1.75 | 81 | 974.3 |
| 20260905212803 | 23 | 269 | 11.3 | 49.9 | 1.57 | 1.57 | 1.57 | 82 | 974.4 |
| 20260905212701 | 23 | 255 | 11.3 | 49.9 | 1.45 | 1.45 | 1.45 | 82 | 974.7 |
| 20260905212601 | 23 | 330 | 11.3 | 49.9 | 1.32 | 1.32 | 1.32 | 79 | 974.7 |
| 20260905212502 | 24 | 338 | 9.7 | 49.9 | 1.17 | 1.17 | 1.17 | 80 | 974.6 |
| 20260905212401 | 24 | 352 | 9.7 | 49.9 | 1.02 | 1.02 | 1.07 | 77 | 974.5 |
| 20260905212306 | 24 | 68 | 8.0 | 49.9 | 0.86 | 0.86 | 0.97 | 78 | 974.6 |
| 20260905212201 | 25 | 323 | 8.0 | 32.2 | 0.86 | 0.86 | 0.86 | 82 | 974.4 |
| 20260905212101 | 25 | 79 | 8.0 | 20.9 | 0.76 | 0.76 | 0.76 | 81 | 974.4 |
| 20260905212002 | 25 | 13 | 8.0 | 20.9 | 0.66 | 0.66 | 0.69 | 79 | 974.3 |
| 20260905211902 | 25 | 43 | 8.0 | 20.9 | 0.61 | 0.61 | 0.61 | 79 | 974.2 |
| 20260905211802 | 26 | 34 | 8.0 | 20.9 | 0.53 | 0.53 | 0.56 | 78 | 974.0 |
| 20260905211701 | 26 | 62 | 8.0 | 20.9 | 0.48 | 0.48 | 0.51 | 77 | 973.9 |
| 20260905211602 | 26 | 74 | 6.4 | 20.9 | 0.46 | 0.46 | 0.48 | 79 | 973.7 |
| 20260905211501 | 27 | 39 | 6.4 | 20.9 | 0.46 | 0.46 | 0.46 | 79 | 973.6 |
| 20260905211402 | 27 | 87 | 6.4 | 20.9 | 0.43 | 0.43 | 0.46 | 79 | 973.6 |
| 20260905211302 | 27 | 74 | 6.4 | 20.9 | 0.43 | 0.43 | 0.43 | 76 | 973.5 |
| 20260905211202 | 28 | 350 | 6.4 | 20.9 | 0.41 | 0.41 | 0.41 | 77 | 973.5 |
| 20260905211102 | 28 | 14 | 6.4 | 12.9 | 0.41 | 0.41 | 0.41 | 77 | 973.5 |
| 20260905210958 | 28 | 52 | 6.4 | 12.9 | 0.38 | 0.38 | 0.41 | 77 | 973.6 |
| 20260905210853 | 29 | 63 | 6.4 | 12.9 | 0.38 | 0.38 | 0.38 | 76 | 973.7 |
| 20260905210754 | 30 | 41 | 6.4 | 12.9 | 0.30 | 0.30 | 0.33 | 73 | 973.7 |
| 20260905210652 | 30 | 18 | 6.4 | 14.5 | 0.28 | 0.28 | 0.28 | 72 | 973.6 |
| 20260905210550 | 30 | 16 | 6.4 | 14.5 | 0.20 | 0.20 | 0.25 | 69 | 973.6 |
| 20260905210451 | 31 | 8 | 6.4 | 14.5 | 0.15 | 0.15 | 0.18 | 68 | 973.7 |
| 20260905210348 | 31 | 340 | 6.4 | 14.5 | 0.05 | 0.05 | 0.13 | 68 | 973.7 |
| 20260905210247 | 31 | 328 | 6.4 | 14.5 | 0.05 | 0.05 | 0.05 | 66 | 973.6 |
| 20260905210147 | 31 | 327 | 4.8 | 14.5 | 0.00 | 0.00 | 0.00 | 66 | 973.6 |
| 20260905210047 | 31 | 319 | 4.8 | 14.5 | 0.00 | 0.00 | 0.00 | 65 | 973.5 |
| 20260905205945 | 31 | 19 | 4.8 | 14.5 | 0.00 | 0.00 | 0.00 | 65 | 973.5 |
| 20260905205845 | 31 | 248 | 4.8 | 14.5 | 0.00 | 0.00 | 0.00 | 65 | 973.5 |
| 20260905205745 | 31 | 279 | 3.2 | 14.5 | 0.00 | 0.00 | 0.00 | 64 | 973.4 |
| 20260905205644 | 31 | 257 | 3.2 | 11.3 | 0.00 | 0.00 | 0.00 | 66 | 973.5 |
| 20260905205544 | 31 | 311 | 3.2 | 9.7 | 0.00 | 0.00 | 0.00 | 67 | 973.5 |
| 20260905205445 | 31 | 335 | 3.2 | 9.7 | 0.00 | 0.00 | 0.00 | 67 | 973.6 |
| 20260905205344 | 31 | 339 | 3.2 | 6.4 | 0.00 | 0.00 | 0.00 | 66 | 973.6 |
| 20260905205246 | 31 | 342 | 3.2 | 6.4 | 0.00 | 0.00 | 0.00 | 66 | 973.6 |
| 20260905205146 | 31 | 341 | 3.2 | 8.0 | 0.00 | 0.00 | 0.00 | 67 | 973.7 |
| 20260905205042 | 31 | 309 | 3.2 | 8.0 | 0.00 | 0.00 | 0.00 | 68 | 973.7 |
| 20260905204944 | 31 | 294 | 4.8 | 8.0 | 0.00 | 0.00 | 0.00 | 67 | 973.7 |
| 20260905204844 | 31 | 277 | 4.8 | 8.0 | 0.00 | 0.00 | 0.00 | 68 | 973.8 |
| 20260905204743 | 31 | 276 | 4.8 | 11.3 | 0.00 | 0.00 | 0.00 | 68 | 973.8 |
| 20260905204644 | 31 | 264 | 4.8 | 11.3 | 0.00 | 0.00 | 0.00 | 69 | 973.9 |
| 20260905204540 | 31 | 323 | 4.8 | 11.3 | 0.00 | 0.00 | 0.00 | 68 | 973.9 |
| 20260905204440 | 31 | 316 | 4.8 | 11.3 | 0.00 | 0.00 | 0.00 | 67 | 973.9 |
| 20260905204341 | 31 | 314 | 4.8 | 11.3 | 0.00 | 0.00 | 0.00 | 68 | 973.9 |
| 20260905204241 | 31 | 325 | 4.8 | 11.3 | 0.00 | 0.00 | 0.00 | 67 | 973.9 |
| 20260905204136 | 31 | 307 | 4.8 | 11.3 | 0.00 | 0.00 | 0.00 | 67 | 974.0 |
| 20260905204037 | 31 | 342 | 4.8 | 11.3 | 0.00 | 0.00 | 0.00 | 67 | 973.9 |
| 20260905203936 | 31 | 319 | 3.2 | 11.3 | 0.00 | 0.00 | 0.00 | 67 | 974.0 |
| 20260905203838 | 31 | 349 | 3.2 | 11.3 | 0.00 | 0.00 | 0.00 | 67 | 973.9 |
| 20260905203735 | 31 | 305 | 3.2 | 8.0 | 0.00 | 0.00 | 0.00 | 66 | 974.0 |
| 20260905203635 | 31 | 334 | 3.2 | 8.0 | 0.00 | 0.00 | 0.00 | 66 | 973.9 |
| 20260905203535 | 31 | 323 | 3.2 | 8.0 | 0.00 | 0.00 | 0.00 | 66 | 974.0 |
| 20260905203436 | 31 | 340 | 3.2 | 8.0 | 0.00 | 0.00 | 0.00 | 68 | 974.0 |
| 20260905203336 | 31 | 304 | 3.2 | 8.0 | 0.00 | 0.00 | 0.00 | 69 | 974.0 |
| 20260905203235 | 31 | 323 | 3.2 | 8.0 | 0.00 | 0.00 | 0.00 | 68 | 974.0 |
| 20260905203133 | 31 | 359 | 3.2 | 8.0 | 0.00 | 0.00 | 0.00 | 70 | 974.0 |
| 20260905203034 | 31 | 0 | 3.2 | 8.0 | 0.00 | 0.00 | 0.00 | 68 | 974.1 |
| 20260905202932 | 31 | 359 | 3.2 | 8.0 | 0.00 | 0.00 | 0.00 | 70 | 974.1 |
| 20260905202833 | 30 | 25 | 3.2 | 8.0 | 0.00 | 0.00 | 0.00 | 68 | 974.1 |
| 20260905202732 | 30 | 319 | 3.2 | 8.0 | 0.00 | 0.00 | 0.00 | 71 | 974.1 |
| 20260905202631 | 30 | 22 | 3.2 | 11.3 | 0.00 | 0.00 | 0.00 | 71 | 974.1 |
| 20260905202530 | 30 | 318 | 3.2 | 11.3 | 0.00 | 0.00 | 0.00 | 71 | 974.1 |
| 20260905202430 | 30 | 323 | 3.2 | 11.3 | 0.00 | 0.00 | 0.00 | 72 | 974.1 |
| 20260905202330 | 30 | 323 | 3.2 | 11.3 | 0.00 | 0.00 | 0.00 | 70 | 974.1 |
| 20260905202230 | 30 | 323 | 3.2 | 11.3 | 0.00 | 0.00 | 0.00 | 69 | 974.1 |
| 20260905202130 | 30 | 15 | 3.2 | 11.3 | 0.00 | 0.00 | 0.00 | 68 | 974.1 |
| 20260905202031 | 30 | 319 | 3.2 | 11.3 | 0.00 | 0.00 | 0.00 | 68 | 974.2 |
| 20260905201930 | 30 | 328 | 3.2 | 11.3 | 0.00 | 0.00 | 0.00 | 69 | 974.2 |
| 20260905201829 | 30 | 328 | 3.2 | 11.3 | 0.00 | 0.00 | 0.00 | 69 | 974.2 |
| 20260905201729 | 30 | 355 | 3.2 | 11.3 | 0.00 | 0.00 | 0.00 | 69 | 974.2 |
| 20260905201631 | 30 | 321 | 3.2 | 11.3 | 0.00 | 0.00 | 0.00 | 69 | 974.3 |
| 20260905201528 | 30 | 321 | 4.8 | 11.3 | 0.00 | 0.00 | 0.00 | 69 | 974.3 |
| 20260905201429 | 30 | 321 | 4.8 | 11.3 | 0.00 | 0.00 | 0.00 | 68 | 974.3 |
| 20260905201327 | 30 | 321 | 4.8 | 11.3 | 0.00 | 0.00 | 0.00 | 68 | 974.3 |
| 20260905201228 | 30 | 321 | 4.8 | 11.3 | 0.00 | 0.00 | 0.00 | 67 | 974.4 |
| 20260905201125 | 30 | 321 | 4.8 | 11.3 | 0.00 | 0.00 | 0.00 | 68 | 974.3 |
| 20260905201024 | 30 | 321 | 4.8 | 11.3 | 0.00 | 0.00 | 0.00 | 68 | 974.4 |
| 20260905200926 | 30 | 301 | 4.8 | 11.3 | 0.00 | 0.03 | 0.00 | 69 | 974.4 |
| 20260905200825 | 30 | 320 | 4.8 | 11.3 | 0.00 | 0.03 | 0.00 | 67 | 974.4 |
| 20260905200723 | 30 | 333 | 4.8 | 9.7 | 0.00 | 0.03 | 0.00 | 67 | 974.4 |
| 20260905200623 | 31 | 330 | 4.8 | 9.7 | 0.00 | 0.03 | 0.00 | 67 | 974.4 |
| 20260905200520 | 31 | 297 | 3.2 | 9.7 | 0.00 | 0.03 | 0.00 | 67 | 974.4 |
| 20260905200421 | 31 | 270 | 3.2 | 9.7 | 0.00 | 0.03 | 0.00 | 68 | 974.4 |
| 20260905200321 | 31 | 240 | 3.2 | 9.7 | 0.00 | 0.03 | 0.00 | 68 | 974.3 |
| 20260905200220 | 31 | 303 | 3.2 | 9.7 | 0.00 | 0.03 | 0.00 | 67 | 974.3 |
| 20260905200121 | 30 | 322 | 3.2 | 9.7 | 0.00 | 0.03 | 0.00 | 67 | 974.3 |
| 20260905200020 | 30 | 328 | 3.2 | 9.7 | 0.00 | 0.03 | 0.00 | 66 | 974.3 |
| 20260905195920 | 30 | 323 | 3.2 | 9.7 | 0.00 | 0.03 | 0.00 | 68 | 974.3 |
| 20260905195820 | 30 | 333 | 1.6 | 6.4 | 0.00 | 0.03 | 0.00 | 68 | 974.4 |
| 20260905195722 | 30 | 320 | 1.6 | 4.8 | 0.00 | 0.03 | 0.00 | 67 | 974.4 |
| 20260905195619 | 30 | 260 | 3.2 | 6.4 | 0.00 | 0.03 | 0.00 | 67 | 974.4 |
| 20260905195519 | 30 | 259 | 3.2 | 6.4 | 0.00 | 0.03 | 0.00 | 66 | 974.4 |
| 20260905195417 | 30 | 267 | 3.2 | 8.0 | 0.00 | 0.03 | 0.00 | 66 | 974.5 |
| 20260905195315 | 31 | 276 | 3.2 | 8.0 | 0.00 | 0.03 | 0.00 | 67 | 974.5 |
| 20260905195213 | 31 | 337 | 3.2 | 8.0 | 0.00 | 0.03 | 0.00 | 65 | 974.5 |
| 20260905195113 | 31 | 285 | 3.2 | 8.0 | 0.00 | 0.03 | 0.00 | 66 | 974.5 |
| 20260905195013 | 31 | 315 | 3.2 | 8.0 | 0.00 | 0.03 | 0.00 | 65 | 974.5 |
| 20260905194911 | 31 | 314 | 3.2 | 12.9 | 0.00 | 0.03 | 0.00 | 64 | 974.5 |
| 20260905194808 | 31 | 314 | 4.8 | 12.9 | 0.00 | 0.03 | 0.00 | 65 | 974.5 |
| 20260905194709 | 31 | 319 | 4.8 | 12.9 | 0.00 | 0.03 | 0.00 | 67 | 974.5 |
| 20260905194607 | 31 | 257 | 4.8 | 12.9 | 0.00 | 0.03 | 0.00 | 67 | 974.5 |
| 20260905194507 | 31 | 313 | 4.8 | 12.9 | 0.00 | 0.03 | 0.00 | 66 | 974.5 |
| 20260905194410 | 31 | 316 | 6.4 | 12.9 | 0.00 | 0.03 | 0.00 | 66 | 974.5 |
| 20260905194302 | 31 | 257 | 6.4 | 12.9 | 0.00 | 0.03 | 0.00 | 67 | 974.5 |
| 20260905194202 | 30 | 250 | 6.4 | 12.9 | 0.00 | 0.03 | 0.00 | 65 | 974.5 |
| 20260905194102 | 30 | 258 | 6.4 | 12.9 | 0.00 | 0.03 | 0.00 | 67 | 974.5 |
| 20260905194001 | 30 | 243 | 6.4 | 12.9 | 0.00 | 0.03 | 0.00 | 65 | 974.6 |
| 20260905193901 | 31 | 252 | 6.4 | 12.9 | 0.00 | 0.03 | 0.00 | 65 | 974.6 |
| 20260905193803 | 31 | 263 | 4.8 | 12.9 | 0.00 | 0.03 | 0.00 | 65 | 974.6 |
| 20260905193701 | 31 | 271 | 4.8 | 11.3 | 0.00 | 0.03 | 0.00 | 64 | 974.7 |
| 20260905193601 | 31 | 271 | 4.8 | 11.3 | 0.00 | 0.03 | 0.00 | 66 | 974.6 |
| 20260905193501 | 31 | 324 | 4.8 | 11.3 | 0.00 | 0.03 | 0.00 | 67 | 974.7 |
| 20260905193401 | 31 | 321 | 4.8 | 11.3 | 0.00 | 0.03 | 0.00 | 66 | 974.7 |
| 20260905193302 | 31 | 321 | 3.2 | 9.7 | 0.00 | 0.03 | 0.00 | 66 | 974.7 |
| 20260905193201 | 31 | 300 | 3.2 | 9.7 | 0.00 | 0.03 | 0.00 | 66 | 974.6 |
| 20260905193101 | 31 | 321 | 4.8 | 9.7 | 0.00 | 0.03 | 0.00 | 67 | 974.7 |
| 20260905193002 | 31 | 271 | 4.8 | 11.3 | 0.00 | 0.03 | 0.00 | 67 | 974.7 |
| 20260905192902 | 31 | 317 | 4.8 | 11.3 | 0.00 | 0.03 | 0.00 | 68 | 974.7 |
| 20260905192801 | 31 | 275 | 4.8 | 11.3 | 0.00 | 0.03 | 0.00 | 67 | 974.7 |
| 20260905192702 | 31 | 275 | 4.8 | 11.3 | 0.00 | 0.03 | 0.00 | 67 | 974.8 |
| 20260905192602 | 30 | 275 | 4.8 | 11.3 | 0.00 | 0.03 | 0.00 | 67 | 974.8 |
| 20260905192501 | 30 | 275 | 4.8 | 11.3 | 0.00 | 0.03 | 0.00 | 65 | 974.8 |
| 20260905192401 | 31 | 279 | 4.8 | 11.3 | 0.00 | 0.03 | 0.00 | 66 | 974.8 |
| 20260905192301 | 31 | 226 | 4.8 | 11.3 | 0.00 | 0.03 | 0.00 | 65 | 974.8 |
| 20260905192201 | 31 | 269 | 4.8 | 11.3 | 0.00 | 0.03 | 0.00 | 65 | 974.8 |
| 20260905192102 | 31 | 257 | 4.8 | 11.3 | 0.00 | 0.03 | 0.00 | 66 | 974.8 |
| 20260905192000 | 31 | 226 | 4.8 | 11.3 | 0.00 | 0.03 | 0.00 | 66 | 974.8 |
| 20260905191902 | 31 | 281 | 4.8 | 12.9 | 0.00 | 0.03 | 0.00 | 67 | 974.8 |
| 20260905191802 | 31 | 311 | 4.8 | 12.9 | 0.00 | 0.03 | 0.00 | 67 | 974.8 |
| 20260905191702 | 31 | 326 | 4.8 | 12.9 | 0.00 | 0.03 | 0.00 | 68 | 974.8 |
| 20260905191601 | 30 | 293 | 4.8 | 12.9 | 0.00 | 0.03 | 0.00 | 67 | 974.8 |
| 20260905191503 | 30 | 273 | 4.8 | 12.9 | 0.00 | 0.03 | 0.00 | 68 | 974.8 |
| 20260905191401 | 30 | 340 | 4.8 | 12.9 | 0.00 | 0.03 | 0.00 | 65 | 974.8 |
| 20260905191301 | 30 | 341 | 6.4 | 12.9 | 0.00 | 0.03 | 0.00 | 68 | 974.9 |
| 20260905191201 | 30 | 300 | 6.4 | 12.9 | 0.00 | 0.03 | 0.00 | 65 | 974.9 |
| 20260905191101 | 30 | 281 | 6.4 | 12.9 | 0.00 | 0.03 | 0.00 | 65 | 974.9 |
| 20260905191001 | 30 | 241 | 6.4 | 12.9 | 0.00 | 0.03 | 0.00 | 68 | 974.9 |
| 20260905190902 | 30 | 303 | 4.8 | 12.9 | 0.00 | 0.03 | 0.00 | 67 | 974.9 |
| 20260905190801 | 30 | 212 | 4.8 | 12.9 | 0.00 | 0.03 | 0.00 | 66 | 974.9 |
| 20260905190701 | 30 | 248 | 4.8 | 12.9 | 0.00 | 0.03 | 0.00 | 67 | 974.9 |
| 20260905190601 | 30 | 310 | 4.8 | 12.9 | 0.00 | 0.03 | 0.00 | 65 | 974.9 |
| 20260905190501 | 30 | 14 | 4.8 | 12.9 | 0.00 | 0.03 | 0.00 | 66 | 974.9 |
| 20260905190402 | 30 | 321 | 4.8 | 12.9 | 0.00 | 0.03 | 0.00 | 64 | 975.0 |
| 20260905190301 | 30 | 315 | 4.8 | 12.9 | 0.00 | 0.03 | 0.00 | 66 | 975.0 |
| 20260905190159 | 30 | 341 | 4.8 | 12.9 | 0.00 | 0.03 | 0.00 | 65 | 975.0 |
| 20260905190059 | 30 | 273 | 4.8 | 12.9 | 0.00 | 0.03 | 0.00 | 66 | 975.0 |
| 20260905185958 | 30 | 264 | 4.8 | 12.9 | 0.00 | 0.03 | 0.00 | 66 | 975.0 |
| 20260905185859 | 30 | 336 | 4.8 | 12.9 | 0.00 | 0.03 | 0.00 | 65 | 975.0 |
| 20260905185758 | 30 | 313 | 6.4 | 12.9 | 0.00 | 0.03 | 0.00 | 67 | 975.0 |
| 20260905185657 | 30 | 313 | 6.4 | 12.9 | 0.00 | 0.03 | 0.00 | 67 | 975.0 |
| 20260905185556 | 30 | 331 | 6.4 | 12.9 | 0.00 | 0.03 | 0.00 | 67 | 975.0 |
| 20260905185455 | 30 | 316 | 6.4 | 12.9 | 0.00 | 0.03 | 0.00 | 69 | 975.0 |
| 20260905185353 | 30 | 316 | 6.4 | 12.9 | 0.00 | 0.03 | 0.00 | 67 | 975.0 |
| 20260905185249 | 30 | 354 | 6.4 | 12.9 | 0.00 | 0.03 | 0.00 | 65 | 975.0 |
| 20260905185148 | 30 | 324 | 6.4 | 11.3 | 0.00 | 0.03 | 0.00 | 65 | 975.0 |
| 20260905185048 | 30 | 333 | 6.4 | 11.3 | 0.00 | 0.03 | 0.00 | 66 | 975.0 |
| 20260905184950 | 30 | 278 | 6.4 | 11.3 | 0.00 | 0.03 | 0.00 | 67 | 975.0 |
| 20260905184847 | 30 | 257 | 6.4 | 11.3 | 0.00 | 0.03 | 0.00 | 66 | 975.0 |
| 20260905184743 | 30 | 321 | 6.4 | 11.3 | 0.00 | 0.03 | 0.00 | 65 | 975.0 |
| 20260905184640 | 30 | 264 | 4.8 | 11.3 | 0.00 | 0.03 | 0.00 | 65 | 975.0 |
| 20260905184540 | 30 | 200 | 4.8 | 11.3 | 0.00 | 0.03 | 0.00 | 65 | 975.0 |
| 20260905184442 | 30 | 238 | 4.8 | 11.3 | 0.00 | 0.03 | 0.00 | 67 | 975.0 |
| 20260905184341 | 30 | 276 | 4.8 | 11.3 | 0.00 | 0.03 | 0.00 | 67 | 975.0 |
| 20260905184242 | 30 | 259 | 4.8 | 11.3 | 0.00 | 0.03 | 0.00 | 67 | 975.1 |
| 20260905184138 | 30 | 259 | 4.8 | 11.3 | 0.00 | 0.03 | 0.00 | 67 | 975.1 |
| 20260905184036 | 30 | 245 | 4.8 | 11.3 | 0.00 | 0.03 | 0.00 | 67 | 975.1 |
| 20260905183937 | 30 | 193 | 4.8 | 11.3 | 0.00 | 0.03 | 0.00 | 66 | 975.1 |
| 20260905183835 | 30 | 243 | 4.8 | 11.3 | 0.00 | 0.03 | 0.00 | 68 | 975.1 |
| 20260905183735 | 30 | 228 | 4.8 | 11.3 | 0.00 | 0.03 | 0.00 | 66 | 975.2 |
| 20260905183633 | 30 | 230 | 6.4 | 11.3 | 0.00 | 0.03 | 0.00 | 66 | 975.2 |
| 20260905183530 | 30 | 230 | 6.4 | 11.3 | 0.00 | 0.03 | 0.00 | 66 | 975.3 |
| 20260905183431 | 30 | 238 | 6.4 | 12.9 | 0.00 | 0.03 | 0.00 | 66 | 975.3 |
| 20260905183329 | 30 | 249 | 6.4 | 12.9 | 0.00 | 0.03 | 0.00 | 68 | 975.3 |
| 20260905183229 | 30 | 248 | 6.4 | 14.5 | 0.00 | 0.03 | 0.00 | 68 | 975.3 |
| 20260905183131 | 30 | 251 | 6.4 | 14.5 | 0.00 | 0.03 | 0.00 | 67 | 975.3 |
| 20260905183030 | 30 | 252 | 6.4 | 14.5 | 0.00 | 0.03 | 0.00 | 67 | 975.3 |
| 20260905182930 | 30 | 246 | 6.4 | 14.5 | 0.00 | 0.03 | 0.00 | 67 | 975.4 |
| 20260905182830 | 30 | 221 | 6.4 | 14.5 | 0.00 | 0.03 | 0.00 | 68 | 975.4 |
| 20260905182729 | 30 | 274 | 6.4 | 14.5 | 0.00 | 0.03 | 0.00 | 67 | 975.4 |
| 20260905182630 | 30 | 250 | 6.4 | 14.5 | 0.00 | 0.03 | 0.00 | 68 | 975.5 |
| 20260905182529 | 30 | 257 | 6.4 | 14.5 | 0.00 | 0.03 | 0.00 | 69 | 975.4 |
| 20260905182430 | 30 | 243 | 6.4 | 14.5 | 0.00 | 0.03 | 0.00 | 66 | 975.5 |
| 20260905182330 | 30 | 281 | 6.4 | 14.5 | 0.00 | 0.03 | 0.00 | 66 | 975.4 |
| 20260905182230 | 30 | 258 | 6.4 | 11.3 | 0.00 | 0.03 | 0.00 | 66 | 975.4 |
| 20260905182130 | 30 | 268 | 6.4 | 11.3 | 0.00 | 0.03 | 0.00 | 66 | 975.4 |
| 20260905182029 | 30 | 233 | 6.4 | 11.3 | 0.00 | 0.03 | 0.00 | 67 | 975.4 |
| 20260905181930 | 30 | 273 | 6.4 | 12.9 | 0.00 | 0.03 | 0.00 | 68 | 975.4 |
| 20260905181829 | 30 | 247 | 6.4 | 12.9 | 0.00 | 0.03 | 0.00 | 67 | 975.4 |
| 20260905181730 | 30 | 283 | 6.4 | 12.9 | 0.00 | 0.03 | 0.00 | 67 | 975.4 |
| 20260905181629 | 29 | 281 | 6.4 | 12.9 | 0.00 | 0.03 | 0.00 | 68 | 975.5 |
| 20260905181522 | 29 | 260 | 6.4 | 14.5 | 0.00 | 0.03 | 0.00 | 67 | 975.5 |
| 20260905181422 | 29 | 264 | 6.4 | 14.5 | 0.00 | 0.03 | 0.00 | 66 | 975.5 |
| 20260905181323 | 29 | 231 | 8.0 | 14.5 | 0.00 | 0.03 | 0.00 | 66 | 975.5 |
| 20260905181222 | 29 | 319 | 8.0 | 14.5 | 0.00 | 0.03 | 0.00 | 67 | 975.5 |
| 20260905181123 | 29 | 290 | 8.0 | 14.5 | 0.00 | 0.03 | 0.00 | 66 | 975.5 |
| 20260905181019 | 29 | 248 | 8.0 | 14.5 | 0.00 | 0.03 | 0.00 | 70 | 975.5 |
| 20260905180919 | 29 | 255 | 8.0 | 14.5 | 0.00 | 0.03 | 0.00 | 67 | 975.5 |
| 20260905180818 | 29 | 274 | 8.0 | 14.5 | 0.00 | 0.03 | 0.00 | 67 | 975.5 |
| 20260905180720 | 29 | 258 | 8.0 | 16.1 | 0.00 | 0.03 | 0.00 | 67 | 975.5 |
| 20260905180617 | 29 | 272 | 9.7 | 17.7 | 0.00 | 0.03 | 0.00 | 67 | 975.5 |
| 20260905180514 | 29 | 262 | 8.0 | 17.7 | 0.00 | 0.03 | 0.00 | 67 | 975.5 |
| 20260905180415 | 29 | 262 | 8.0 | 17.7 | 0.00 | 0.03 | 0.00 | 68 | 975.5 |
| 20260905180313 | 29 | 273 | 8.0 | 17.7 | 0.00 | 0.03 | 0.00 | 67 | 975.6 |
| 20260905180213 | 29 | 280 | 8.0 | 17.7 | 0.00 | 0.03 | 0.00 | 67 | 975.6 |
| 20260905180111 | 29 | 294 | 8.0 | 17.7 | 0.00 | 0.03 | 0.00 | 67 | 975.6 |
| 20260905180005 | 29 | 326 | 8.0 | 17.7 | 0.00 | 0.03 | 0.00 | 67 | 975.6 |
| 20260905175906 | 29 | 340 | 8.0 | 17.7 | 0.00 | 0.03 | 0.00 | 67 | 975.5 |
| 20260905175804 | 29 | 266 | 8.0 | 17.7 | 0.00 | 0.03 | 0.00 | 66 | 975.5 |
| 20260905175704 | 29 | 259 | 6.4 | 17.7 | 0.00 | 0.03 | 0.00 | 66 | 975.6 |
| 20260905175605 | 29 | 244 | 6.4 | 16.1 | 0.00 | 0.03 | 0.00 | 67 | 975.5 |
| 20260905175504 | 29 | 279 | 6.4 | 16.1 | 0.00 | 0.03 | 0.00 | 67 | 975.5 |
| 20260905175403 | 29 | 227 | 6.4 | 16.1 | 0.00 | 0.03 | 0.00 | 66 | 975.6 |
| 20260905175306 | 29 | 283 | 8.0 | 16.1 | 0.00 | 0.03 | 0.00 | 67 | 975.6 |
| 20260905175203 | 29 | 238 | 8.0 | 16.1 | 0.00 | 0.03 | 0.00 | 67 | 975.6 |
| 20260905175102 | 29 | 245 | 8.0 | 16.1 | 0.00 | 0.03 | 0.00 | 68 | 975.6 |
| 20260905175002 | 29 | 259 | 8.0 | 16.1 | 0.00 | 0.03 | 0.00 | 67 | 975.6 |
| 20260905174901 | 29 | 348 | 8.0 | 16.1 | 0.00 | 0.03 | 0.00 | 67 | 975.6 |
| 20260905174803 | 29 | 238 | 8.0 | 19.3 | 0.00 | 0.03 | 0.00 | 67 | 975.5 |
| 20260905174701 | 28 | 266 | 8.0 | 19.3 | 0.00 | 0.03 | 0.00 | 66 | 975.5 |
| 20260905174601 | 28 | 277 | 8.0 | 19.3 | 0.00 | 0.03 | 0.00 | 67 | 975.5 |
| 20260905174501 | 28 | 255 | 8.0 | 19.3 | 0.00 | 0.03 | 0.00 | 67 | 975.6 |
| 20260905174401 | 29 | 264 | 8.0 | 19.3 | 0.00 | 0.03 | 0.00 | 66 | 975.6 |
| 20260905174302 | 29 | 278 | 8.0 | 19.3 | 0.00 | 0.03 | 0.00 | 66 | 975.6 |
| 20260905174201 | 29 | 271 | 8.0 | 19.3 | 0.00 | 0.03 | 0.00 | 67 | 975.5 |
| 20260905174101 | 29 | 238 | 8.0 | 19.3 | 0.00 | 0.03 | 0.00 | 66 | 975.5 |
| 20260905174001 | 29 | 261 | 8.0 | 19.3 | 0.00 | 0.03 | 0.00 | 66 | 975.5 |
| 20260905173902 | 29 | 261 | 8.0 | 19.3 | 0.00 | 0.03 | 0.00 | 66 | 975.5 |
| 20260905173759 | 29 | 219 | 8.0 | 14.5 | 0.00 | 0.03 | 0.00 | 66 | 975.5 |
| 20260905173659 | 29 | 250 | 8.0 | 14.5 | 0.00 | 0.03 | 0.00 | 65 | 975.6 |
| 20260905173558 | 29 | 250 | 8.0 | 16.1 | 0.00 | 0.03 | 0.00 | 65 | 975.6 |
| 20260905173500 | 29 | 272 | 8.0 | 16.1 | 0.00 | 0.03 | 0.00 | 68 | 975.6 |
| 20260905173359 | 29 | 266 | 8.0 | 16.1 | 0.00 | 0.03 | 0.00 | 69 | 975.6 |
| 20260905173253 | 29 | 273 | 8.0 | 16.1 | 0.00 | 0.03 | 0.00 | 69 | 975.6 |
| 20260905173152 | 29 | 265 | 8.0 | 16.1 | 0.00 | 0.03 | 0.00 | 69 | 975.6 |
| 20260905173054 | 28 | 200 | 8.0 | 16.1 | 0.00 | 0.03 | 0.00 | 68 | 975.6 |
| 20260905172952 | 28 | 224 | 8.0 | 16.1 | 0.00 | 0.03 | 0.00 | 67 | 975.6 |
| 20260905172852 | 28 | 220 | 8.0 | 16.1 | 0.00 | 0.03 | 0.00 | 68 | 975.6 |
| 20260905172746 | 28 | 229 | 6.4 | 16.1 | 0.00 | 0.03 | 0.00 | 66 | 975.6 |
| 20260905172647 | 29 | 278 | 6.4 | 16.1 | 0.00 | 0.03 | 0.00 | 68 | 975.6 |
| 20260905172548 | 29 | 274 | 6.4 | 14.5 | 0.00 | 0.03 | 0.00 | 68 | 975.6 |
| 20260905172447 | 29 | 269 | 6.4 | 14.5 | 0.00 | 0.03 | 0.00 | 68 | 975.6 |
| 20260905172347 | 29 | 276 | 6.4 | 14.5 | 0.00 | 0.03 | 0.00 | 67 | 975.6 |
| 20260905172241 | 29 | 276 | 6.4 | 14.5 | 0.00 | 0.03 | 0.00 | 71 | 975.6 |
| 20260905172140 | 29 | 196 | 8.0 | 14.5 | 0.00 | 0.03 | 0.00 | 68 | 975.6 |
| 20260905172042 | 29 | 258 | 8.0 | 20.9 | 0.00 | 0.03 | 0.00 | 69 | 975.6 |
| 20260905171941 | 29 | 232 | 8.0 | 20.9 | 0.00 | 0.03 | 0.00 | 69 | 975.6 |
| 20260905171841 | 28 | 231 | 8.0 | 20.9 | 0.00 | 0.03 | 0.00 | 70 | 975.6 |
| 20260905171735 | 28 | 278 | 8.0 | 20.9 | 0.00 | 0.03 | 0.00 | 69 | 975.6 |
| 20260905171635 | 28 | 266 | 8.0 | 20.9 | 0.00 | 0.03 | 0.00 | 69 | 975.6 |
| 20260905171535 | 28 | 243 | 6.4 | 20.9 | 0.00 | 0.03 | 0.00 | 67 | 975.6 |
| 20260905171435 | 28 | 228 | 6.4 | 20.9 | 0.00 | 0.03 | 0.00 | 68 | 975.7 |
| 20260905171335 | 28 | 285 | 6.4 | 20.9 | 0.00 | 0.03 | 0.00 | 69 | 975.7 |
| 20260905171231 | 28 | 253 | 6.4 | 20.9 | 0.00 | 0.03 | 0.00 | 68 | 975.7 |
| 20260905171132 | 29 | 252 | 4.8 | 20.9 | 0.00 | 0.03 | 0.00 | 68 | 975.7 |
| 20260905171031 | 29 | 233 | 4.8 | 12.9 | 0.00 | 0.03 | 0.00 | 68 | 975.7 |
| 20260905170930 | 29 | 243 | 4.8 | 14.5 | 0.00 | 0.03 | 0.00 | 68 | 975.7 |
| 20260905170830 | 29 | 323 | 4.8 | 14.5 | 0.00 | 0.03 | 0.00 | 69 | 975.7 |
| 20260905170731 | 29 | 233 | 6.4 | 14.5 | 0.00 | 0.03 | 0.00 | 69 | 975.7 |
| 20260905170629 | 28 | 269 | 6.4 | 14.5 | 0.00 | 0.03 | 0.00 | 70 | 975.7 |
| 20260905170530 | 28 | 279 | 6.4 | 14.5 | 0.00 | 0.03 | 0.00 | 71 | 975.7 |
| 20260905170431 | 28 | 279 | 6.4 | 14.5 | 0.00 | 0.03 | 0.00 | 71 | 975.7 |
| 20260905170329 | 28 | 279 | 8.0 | 17.7 | 0.00 | 0.03 | 0.00 | 72 | 975.7 |
| 20260905170230 | 28 | 224 | 8.0 | 17.7 | 0.00 | 0.03 | 0.00 | 71 | 975.7 |
| 20260905170130 | 28 | 229 | 8.0 | 17.7 | 0.00 | 0.03 | 0.00 | 71 | 975.8 |
| 20260905170029 | 28 | 261 | 8.0 | 17.7 | 0.00 | 0.03 | 0.00 | 70 | 975.7 |
| 20260905165931 | 28 | 271 | 8.0 | 17.7 | 0.00 | 0.03 | 0.00 | 73 | 975.8 |
| 20260905165830 | 28 | 244 | 8.0 | 17.7 | 0.00 | 0.03 | 0.00 | 71 | 975.8 |
| 20260905165730 | 28 | 277 | 8.0 | 17.7 | 0.00 | 0.03 | 0.00 | 71 | 975.8 |
| 20260905165631 | 28 | 228 | 8.0 | 17.7 | 0.00 | 0.03 | 0.00 | 71 | 975.8 |
| 20260905165528 | 28 | 264 | 8.0 | 17.7 | 0.00 | 0.03 | 0.00 | 71 | 975.8 |
| 20260905165428 | 28 | 257 | 8.0 | 17.7 | 0.00 | 0.03 | 0.00 | 70 | 975.8 |
| 20260905165329 | 28 | 264 | 6.4 | 17.7 | 0.00 | 0.03 | 0.00 | 71 | 975.8 |
| 20260905165229 | 28 | 262 | 6.4 | 17.7 | 0.00 | 0.03 | 0.00 | 70 | 975.9 |
| 20260905165129 | 28 | 250 | 6.4 | 16.1 | 0.00 | 0.03 | 0.00 | 73 | 975.9 |
| 20260905165025 | 28 | 240 | 6.4 | 16.1 | 0.00 | 0.03 | 0.00 | 71 | 975.8 |
| 20260905164922 | 28 | 222 | 6.4 | 16.1 | 0.00 | 0.03 | 0.00 | 72 | 975.8 |
| 20260905164822 | 28 | 250 | 8.0 | 16.1 | 0.00 | 0.03 | 0.00 | 71 | 975.8 |
| 20260905164722 | 27 | 245 | 8.0 | 16.1 | 0.00 | 0.03 | 0.00 | 72 | 975.9 |
| 20260905164623 | 27 | 281 | 8.0 | 16.1 | 0.00 | 0.03 | 0.00 | 72 | 975.8 |
| 20260905164518 | 27 | 214 | 8.0 | 16.1 | 0.00 | 0.03 | 0.00 | 72 | 975.8 |
| 20260905164419 | 27 | 234 | 8.0 | 14.5 | 0.00 | 0.03 | 0.00 | 73 | 975.8 |
| 20260905164318 | 27 | 240 | 8.0 | 14.5 | 0.00 | 0.03 | 0.00 | 72 | 975.8 |
| 20260905164219 | 27 | 238 | 8.0 | 14.5 | 0.00 | 0.03 | 0.00 | 73 | 975.8 |
| 20260905164117 | 27 | 265 | 8.0 | 14.5 | 0.00 | 0.03 | 0.00 | 72 | 976.0 |
| 20260905164013 | 27 | 300 | 8.0 | 14.5 | 0.00 | 0.03 | 0.00 | 72 | 976.0 |
| 20260905163910 | 27 | 221 | 8.0 | 12.9 | 0.00 | 0.03 | 0.00 | 74 | 976.0 |
| 20260905163810 | 27 | 223 | 6.4 | 12.9 | 0.00 | 0.03 | 0.00 | 74 | 976.0 |
| 20260905163711 | 27 | 228 | 6.4 | 12.9 | 0.00 | 0.03 | 0.00 | 73 | 976.1 |
| 20260905163611 | 27 | 259 | 6.4 | 12.9 | 0.00 | 0.03 | 0.00 | 73 | 976.2 |
| 20260905163504 | 27 | 217 | 6.4 | 12.9 | 0.00 | 0.03 | 0.00 | 73 | 976.2 |
| 20260905163404 | 27 | 266 | 6.4 | 12.9 | 0.00 | 0.03 | 0.00 | 75 | 976.2 |
| 20260905163305 | 27 | 252 | 4.8 | 12.9 | 0.00 | 0.03 | 0.00 | 75 | 976.2 |
| 20260905163204 | 27 | 213 | 4.8 | 11.3 | 0.00 | 0.03 | 0.00 | 78 | 976.2 |
| 20260905163104 | 26 | 243 | 4.8 | 9.7 | 0.00 | 0.03 | 0.00 | 75 | 976.2 |
| 20260905163004 | 26 | 229 | 4.8 | 9.7 | 0.00 | 0.03 | 0.00 | 77 | 976.2 |
| 20260905162905 | 26 | 226 | 4.8 | 9.7 | 0.00 | 0.03 | 0.00 | 76 | 976.1 |
| 20260905162804 | 26 | 229 | 4.8 | 9.7 | 0.00 | 0.03 | 0.00 | 76 | 976.2 |
| 20260905162704 | 26 | 221 | 4.8 | 9.7 | 0.00 | 0.03 | 0.00 | 76 | 976.2 |
| 20260905162605 | 26 | 213 | 4.8 | 9.7 | 0.00 | 0.03 | 0.00 | 75 | 976.3 |
| 20260905162502 | 26 | 273 | 4.8 | 9.7 | 0.00 | 0.03 | 0.00 | 76 | 976.4 |
| 20260905162401 | 26 | 256 | 4.8 | 9.7 | 0.00 | 0.03 | 0.00 | 76 | 976.4 |
| 20260905162305 | 26 | 249 | 4.8 | 9.7 | 0.00 | 0.03 | 0.00 | 76 | 976.5 |
| 20260905162202 | 26 | 276 | 4.8 | 11.3 | 0.00 | 0.03 | 0.00 | 76 | 976.5 |
| 20260905162102 | 26 | 278 | 4.8 | 12.9 | 0.00 | 0.03 | 0.00 | 77 | 976.5 |
| 20260905162002 | 26 | 214 | 4.8 | 12.9 | 0.00 | 0.03 | 0.00 | 76 | 976.5 |
| 20260905161901 | 26 | 214 | 4.8 | 12.9 | 0.00 | 0.03 | 0.00 | 79 | 976.4 |
| 20260905161802 | 26 | 172 | 4.8 | 12.9 | 0.00 | 0.03 | 0.00 | 80 | 976.4 |
| 20260905161702 | 26 | 146 | 4.8 | 12.9 | 0.00 | 0.03 | 0.00 | 80 | 976.4 |
| 20260905161601 | 26 | 146 | 4.8 | 12.9 | 0.00 | 0.03 | 0.00 | 80 | 976.5 |
| 20260905161501 | 26 | 146 | 3.2 | 12.9 | 0.00 | 0.03 | 0.00 | 80 | 976.6 |
| 20260905161402 | 25 | 145 | 3.2 | 12.9 | 0.00 | 0.03 | 0.00 | 78 | 976.6 |
| 20260905161300 | 25 | 146 | 3.2 | 12.9 | 0.00 | 0.03 | 0.00 | 79 | 976.7 |
| 20260905161200 | 25 | 152 | 3.2 | 12.9 | 0.00 | 0.03 | 0.00 | 82 | 976.7 |
| 20260905161058 | 25 | 127 | 3.2 | 8.0 | 0.00 | 0.03 | 0.00 | 82 | 976.8 |
| 20260905160958 | 25 | 127 | 3.2 | 8.0 | 0.00 | 0.03 | 0.00 | 79 | 976.8 |
| 20260905160858 | 25 | 146 | 3.2 | 8.0 | 0.00 | 0.03 | 0.00 | 81 | 976.8 |
| 20260905160754 | 25 | 146 | 3.2 | 8.0 | 0.00 | 0.03 | 0.00 | 81 | 976.8 |
| 20260905160655 | 25 | 146 | 3.2 | 8.0 | 0.00 | 0.03 | 0.00 | 81 | 976.8 |
| 20260905160553 | 25 | 146 | 3.2 | 8.0 | 0.00 | 0.03 | 0.00 | 80 | 976.7 |
| 20260905160455 | 25 | 145 | 3.2 | 8.0 | 0.00 | 0.03 | 0.00 | 79 | 976.6 |
| 20260905160353 | 25 | 146 | 3.2 | 11.3 | 0.00 | 0.03 | 0.00 | 79 | 976.6 |
| 20260905160251 | 25 | 145 | 3.2 | 11.3 | 0.00 | 0.03 | 0.00 | 79 | 976.5 |
| 20260905160151 | 25 | 118 | 3.2 | 11.3 | 0.00 | 0.03 | 0.00 | 79 | 976.5 |
| 20260905160051 | 25 | 118 | 3.2 | 11.3 | 0.00 | 0.03 | 0.00 | 78 | 976.6 |
| 20260905155947 | 25 | 84 | 3.2 | 11.3 | 0.00 | 0.03 | 0.00 | 77 | 976.7 |
| 20260905155847 | 25 | 84 | 3.2 | 11.3 | 0.00 | 0.03 | 0.00 | 77 | 976.9 |
| 20260905155742 | 25 | 84 | 3.2 | 11.3 | 0.00 | 0.03 | 0.00 | 77 | 977.0 |
| 20260905155642 | 26 | 82 | 3.2 | 11.3 | 0.00 | 0.03 | 0.00 | 76 | 977.1 |
| 20260905155543 | 26 | 74 | 3.2 | 11.3 | 0.00 | 0.03 | 0.00 | 76 | 977.2 |
| 20260905155441 | 26 | 89 | 3.2 | 9.7 | 0.00 | 0.03 | 0.00 | 76 | 977.2 |
| 20260905155339 | 26 | 61 | 3.2 | 4.8 | 0.00 | 0.03 | 0.00 | 76 | 977.2 |
| 20260905155238 | 26 | 34 | 3.2 | 4.8 | 0.00 | 0.03 | 0.00 | 76 | 977.2 |
| 20260905155136 | 26 | 32 | 3.2 | 4.8 | 0.00 | 0.03 | 0.00 | 76 | 977.2 |
| 20260905155037 | 26 | 26 | 3.2 | 6.4 | 0.00 | 0.03 | 0.00 | 76 | 977.2 |
| 20260905154934 | 26 | 14 | 3.2 | 6.4 | 0.00 | 0.03 | 0.00 | 76 | 977.1 |
| 20260905154835 | 26 | 14 | 3.2 | 6.4 | 0.00 | 0.03 | 0.00 | 74 | 977.0 |
| 20260905154734 | 26 | 14 | 3.2 | 6.4 | 0.00 | 0.03 | 0.00 | 75 | 976.9 |
| 20260905154634 | 26 | 281 | 3.2 | 8.0 | 0.00 | 0.03 | 0.00 | 73 | 976.9 |
| 20260905154535 | 26 | 282 | 3.2 | 8.0 | 0.00 | 0.03 | 0.00 | 73 | 976.8 |
| 20260905154435 | 26 | 281 | 3.2 | 9.7 | 0.00 | 0.03 | 0.00 | 73 | 976.8 |
| 20260905154332 | 26 | 281 | 4.8 | 11.3 | 0.00 | 0.03 | 0.00 | 72 | 976.8 |
| 20260905154233 | 26 | 264 | 4.8 | 12.9 | 0.00 | 0.03 | 0.00 | 72 | 976.8 |
| 20260905154133 | 26 | 263 | 4.8 | 12.9 | 0.00 | 0.03 | 0.00 | 72 | 976.7 |
| 20260905154032 | 26 | 243 | 4.8 | 12.9 | 0.00 | 0.03 | 0.00 | 72 | 976.7 |
| 20260905153932 | 26 | 243 | 4.8 | 12.9 | 0.00 | 0.03 | 0.00 | 71 | 976.6 |
| 20260905153832 | 26 | 231 | 4.8 | 12.9 | 0.00 | 0.03 | 0.00 | 71 | 976.6 |
| 20260905153732 | 26 | 230 | 6.4 | 12.9 | 0.00 | 0.03 | 0.00 | 71 | 976.5 |
| 20260905153632 | 26 | 250 | 6.4 | 12.9 | 0.00 | 0.03 | 0.00 | 72 | 976.5 |
| 20260905153532 | 27 | 204 | 6.4 | 12.9 | 0.00 | 0.03 | 0.00 | 70 | 976.4 |
| 20260905153432 | 27 | 228 | 6.4 | 12.9 | 0.00 | 0.03 | 0.00 | 71 | 976.3 |
| 20260905153332 | 27 | 217 | 4.8 | 12.9 | 0.00 | 0.03 | 0.00 | 71 | 976.3 |
| 20260905153232 | 27 | 264 | 6.4 | 12.9 | 0.00 | 0.03 | 0.00 | 72 | 976.3 |
| 20260905153132 | 27 | 219 | 6.4 | 12.9 | 0.00 | 0.03 | 0.00 | 72 | 976.3 |
| 20260905153032 | 27 | 219 | 6.4 | 12.9 | 0.00 | 0.03 | 0.00 | 70 | 976.3 |
| 20260905152931 | 27 | 219 | 4.8 | 12.9 | 0.00 | 0.03 | 0.00 | 70 | 976.3 |
| 20260905152831 | 27 | 219 | 4.8 | 11.3 | 0.00 | 0.03 | 0.00 | 71 | 976.3 |
| 20260905152733 | 27 | 235 | 4.8 | 9.7 | 0.00 | 0.03 | 0.00 | 71 | 976.3 |
| 20260905152633 | 27 | 219 | 6.4 | 11.3 | 0.00 | 0.03 | 0.00 | 71 | 976.3 |
| 20260905152530 | 27 | 219 | 6.4 | 11.3 | 0.00 | 0.03 | 0.00 | 71 | 976.3 |
| 20260905152430 | 27 | 245 | 4.8 | 11.3 | 0.00 | 0.03 | 0.00 | 70 | 976.3 |
| 20260905152329 | 27 | 232 | 4.8 | 11.3 | 0.00 | 0.03 | 0.00 | 72 | 976.2 |
| 20260905152229 | 27 | 233 | 4.8 | 11.3 | 0.00 | 0.03 | 0.00 | 74 | 976.1 |
| 20260905152130 | 27 | 280 | 4.8 | 11.3 | 0.00 | 0.03 | 0.00 | 73 | 976.1 |
| 20260905152030 | 27 | 274 | 6.4 | 11.3 | 0.00 | 0.03 | 0.00 | 73 | 976.1 |
| 20260905151930 | 27 | 276 | 6.4 | 11.3 | 0.00 | 0.03 | 0.00 | 72 | 976.2 |
| 20260905151831 | 27 | 281 | 6.4 | 11.3 | 0.00 | 0.03 | 0.00 | 73 | 976.1 |
| 20260905151730 | 26 | 255 | 6.4 | 11.3 | 0.00 | 0.03 | 0.00 | 74 | 976.1 |
| 20260905151631 | 26 | 180 | 4.8 | 11.3 | 0.00 | 0.03 | 0.00 | 75 | 976.1 |
| 20260905151530 | 26 | 221 | 6.4 | 11.3 | 0.00 | 0.03 | 0.00 | 75 | 976.1 |
| 20260905151430 | 26 | 229 | 6.4 | 11.3 | 0.00 | 0.03 | 0.00 | 75 | 976.1 |
| 20260905151329 | 26 | 237 | 6.4 | 11.3 | 0.00 | 0.03 | 0.00 | 73 | 976.1 |
| 20260905151230 | 26 | 221 | 6.4 | 11.3 | 0.00 | 0.03 | 0.00 | 74 | 976.2 |
| 20260905151129 | 26 | 221 | 6.4 | 11.3 | 0.00 | 0.03 | 0.00 | 74 | 976.2 |
| 20260905151031 | 26 | 238 | 6.4 | 11.3 | 0.00 | 0.03 | 0.00 | 75 | 976.2 |
| 20260905150927 | 26 | 222 | 4.8 | 11.3 | 0.00 | 0.03 | 0.00 | 73 | 976.1 |
| 20260905150827 | 26 | 243 | 4.8 | 11.3 | 0.00 | 0.03 | 0.00 | 75 | 976.2 |
| 20260905150727 | 26 | 252 | 4.8 | 11.3 | 0.00 | 0.03 | 0.00 | 74 | 976.2 |
| 20260905150626 | 26 | 232 | 4.8 | 11.3 | 0.00 | 0.03 | 0.00 | 73 | 976.2 |
| 20260905150526 | 26 | 285 | 4.8 | 11.3 | 0.00 | 0.03 | 0.00 | 72 | 976.1 |
| 20260905150426 | 26 | 270 | 4.8 | 11.3 | 0.00 | 0.03 | 0.00 | 75 | 976.1 |
| 20260905150326 | 26 | 229 | 4.8 | 11.3 | 0.00 | 0.03 | 0.00 | 75 | 976.1 |
| 20260905150227 | 26 | 219 | 4.8 | 11.3 | 0.00 | 0.03 | 0.00 | 77 | 976.1 |
| 20260905150127 | 26 | 214 | 4.8 | 11.3 | 0.00 | 0.03 | 0.00 | 76 | 976.1 |
| 20260905150025 | 26 | 214 | 4.8 | 11.3 | 0.00 | 0.03 | 0.00 | 76 | 976.1 |
| 20260905145924 | 26 | 214 | 6.4 | 12.9 | 0.00 | 0.03 | 0.00 | 75 | 976.0 |
| 20260905145825 | 26 | 202 | 6.4 | 12.9 | 0.00 | 0.03 | 0.00 | 75 | 976.0 |
| 20260905145721 | 25 | 202 | 6.4 | 12.9 | 0.00 | 0.03 | 0.00 | 75 | 976.0 |
| 20260905145620 | 25 | 201 | 6.4 | 12.9 | 0.00 | 0.03 | 0.00 | 76 | 976.0 |
| 20260905145519 | 25 | 201 | 6.4 | 12.9 | 0.00 | 0.03 | 0.00 | 75 | 976.0 |
| 20260905145420 | 25 | 187 | 6.4 | 12.9 | 0.00 | 0.03 | 0.00 | 74 | 976.0 |
| 20260905145321 | 25 | 240 | 6.4 | 14.5 | 0.00 | 0.03 | 0.00 | 76 | 976.0 |
| 20260905145221 | 25 | 240 | 6.4 | 14.5 | 0.00 | 0.03 | 0.00 | 75 | 975.9 |
| 20260905145120 | 25 | 239 | 6.4 | 14.5 | 0.00 | 0.03 | 0.00 | 75 | 975.8 |
| 20260905145019 | 25 | 238 | 6.4 | 14.5 | 0.00 | 0.03 | 0.00 | 75 | 975.8 |
| 20260905144920 | 25 | 275 | 6.4 | 14.5 | 0.00 | 0.03 | 0.00 | 76 | 975.8 |
| 20260905144821 | 25 | 233 | 8.0 | 14.5 | 0.00 | 0.03 | 0.00 | 77 | 975.8 |
| 20260905144720 | 25 | 256 | 8.0 | 14.5 | 0.00 | 0.03 | 0.00 | 76 | 975.8 |
| 20260905144619 | 25 | 203 | 8.0 | 17.7 | 0.00 | 0.03 | 0.00 | 78 | 975.8 |
| 20260905144521 | 25 | 237 | 9.7 | 17.7 | 0.00 | 0.03 | 0.00 | 76 | 975.8 |
| 20260905144420 | 25 | 220 | 9.7 | 17.7 | 0.00 | 0.03 | 0.00 | 77 | 975.8 |
| 20260905144321 | 25 | 226 | 9.7 | 17.7 | 0.00 | 0.03 | 0.00 | 77 | 975.8 |
| 20260905144220 | 25 | 199 | 9.7 | 17.7 | 0.00 | 0.03 | 0.00 | 76 | 975.8 |
| 20260905144119 | 25 | 198 | 11.3 | 17.7 | 0.00 | 0.03 | 0.00 | 76 | 975.8 |
| 20260905144022 | 25 | 216 | 11.3 | 17.7 | 0.00 | 0.03 | 0.00 | 77 | 975.8 |
| 20260905143921 | 25 | 221 | 11.3 | 17.7 | 0.00 | 0.03 | 0.00 | 78 | 975.9 |
| 20260905143816 | 25 | 212 | 11.3 | 17.7 | 0.00 | 0.03 | 0.00 | 77 | 975.9 |
| 20260905143716 | 25 | 214 | 11.3 | 17.7 | 0.00 | 0.03 | 0.00 | 76 | 975.9 |
| 20260905143615 | 25 | 212 | 11.3 | 17.7 | 0.00 | 0.03 | 0.00 | 77 | 975.9 |
| 20260905143516 | 25 | 212 | 11.3 | 17.7 | 0.00 | 0.03 | 0.00 | 77 | 975.9 |
| 20260905143416 | 25 | 228 | 9.7 | 17.7 | 0.00 | 0.03 | 0.00 | 76 | 975.8 |
| 20260905143316 | 25 | 220 | 9.7 | 17.7 | 0.00 | 0.03 | 0.00 | 77 | 975.9 |
| 20260905143216 | 25 | 232 | 9.7 | 16.1 | 0.00 | 0.03 | 0.00 | 77 | 975.9 |
| 20260905143115 | 25 | 208 | 9.7 | 16.1 | 0.00 | 0.03 | 0.00 | 78 | 975.9 |
| 20260905143016 | 25 | 214 | 9.7 | 16.1 | 0.00 | 0.03 | 0.00 | 77 | 975.9 |
| 20260905142916 | 25 | 222 | 9.7 | 16.1 | 0.00 | 0.03 | 0.00 | 79 | 975.9 |
| 20260905142815 | 25 | 224 | 9.7 | 17.7 | 0.00 | 0.03 | 0.00 | 79 | 975.9 |
| 20260905142716 | 25 | 229 | 9.7 | 17.7 | 0.00 | 0.03 | 0.00 | 78 | 975.8 |
| 20260905142617 | 25 | 235 | 9.7 | 17.7 | 0.00 | 0.03 | 0.00 | 78 | 975.8 |
| 20260905142515 | 25 | 236 | 9.7 | 17.7 | 0.00 | 0.03 | 0.00 | 77 | 975.7 |
| 20260905142416 | 25 | 204 | 9.7 | 17.7 | 0.00 | 0.03 | 0.00 | 77 | 975.7 |
| 20260905142316 | 25 | 210 | 8.0 | 17.7 | 0.00 | 0.03 | 0.00 | 77 | 975.7 |
| 20260905142216 | 25 | 210 | 9.7 | 17.7 | 0.00 | 0.03 | 0.00 | 77 | 975.7 |
| 20260905142116 | 25 | 219 | 8.0 | 17.7 | 0.00 | 0.03 | 0.00 | 77 | 975.7 |
| 20260905142016 | 25 | 203 | 9.7 | 17.7 | 0.00 | 0.03 | 0.00 | 78 | 975.7 |
| 20260905141913 | 25 | 200 | 8.0 | 16.1 | 0.00 | 0.03 | 0.00 | 78 | 975.7 |
| 20260905141811 | 25 | 212 | 9.7 | 16.1 | 0.00 | 0.03 | 0.00 | 78 | 975.7 |
| 20260905141713 | 25 | 212 | 9.7 | 16.1 | 0.00 | 0.03 | 0.00 | 78 | 975.8 |
| 20260905141613 | 24 | 219 | 8.0 | 16.1 | 0.00 | 0.03 | 0.00 | 78 | 975.8 |
| 20260905141513 | 24 | 221 | 8.0 | 16.1 | 0.00 | 0.03 | 0.00 | 78 | 975.8 |
| 20260905141411 | 24 | 214 | 8.0 | 16.1 | 0.00 | 0.03 | 0.00 | 77 | 975.8 |
| 20260905141313 | 24 | 152 | 8.0 | 16.1 | 0.00 | 0.03 | 0.00 | 78 | 975.9 |
| 20260905141213 | 24 | 173 | 8.0 | 16.1 | 0.00 | 0.03 | 0.00 | 78 | 975.9 |
| 20260905141113 | 24 | 252 | 8.0 | 16.1 | 0.00 | 0.03 | 0.00 | 77 | 975.9 |
| 20260905141012 | 24 | 211 | 6.4 | 16.1 | 0.00 | 0.03 | 0.00 | 77 | 976.0 |
| 20260905140912 | 24 | 217 | 6.4 | 16.1 | 0.00 | 0.03 | 0.00 | 77 | 976.0 |
| 20260905140812 | 24 | 210 | 6.4 | 14.5 | 0.00 | 0.03 | 0.00 | 77 | 976.0 |
| 20260905140712 | 24 | 203 | 6.4 | 12.9 | 0.00 | 0.03 | 0.00 | 79 | 976.1 |
| 20260905140612 | 24 | 206 | 6.4 | 12.9 | 0.00 | 0.03 | 0.00 | 80 | 976.1 |
| 20260905140513 | 24 | 215 | 6.4 | 12.9 | 0.00 | 0.03 | 0.00 | 80 | 976.1 |
| 20260905140412 | 24 | 222 | 6.4 | 12.9 | 0.00 | 0.03 | 0.00 | 80 | 976.1 |
| 20260905140313 | 24 | 225 | 6.4 | 12.9 | 0.00 | 0.03 | 0.00 | 79 | 976.1 |
| 20260905140213 | 24 | 153 | 6.4 | 12.9 | 0.00 | 0.03 | 0.00 | 79 | 976.1 |
| 20260905140112 | 24 | 143 | 6.4 | 12.9 | 0.00 | 0.03 | 0.00 | 79 | 976.2 |
| 20260905140008 | 24 | 144 | 6.4 | 12.9 | 0.00 | 0.03 | 0.00 | 78 | 976.2 |
| 20260905135908 | 23 | 221 | 6.4 | 12.9 | 0.00 | 0.03 | 0.00 | 80 | 976.1 |
| 20260905135808 | 23 | 226 | 6.4 | 12.9 | 0.00 | 0.03 | 0.00 | 79 | 976.1 |
| 20260905135708 | 23 | 238 | 6.4 | 12.9 | 0.00 | 0.03 | 0.00 | 80 | 976.1 |
| 20260905135607 | 23 | 205 | 6.4 | 16.1 | 0.00 | 0.03 | 0.00 | 81 | 976.1 |
| 20260905135508 | 23 | 218 | 6.4 | 16.1 | 0.00 | 0.03 | 0.00 | 80 | 976.1 |
| 20260905135408 | 23 | 133 | 6.4 | 16.1 | 0.00 | 0.03 | 0.00 | 81 | 976.0 |
| 20260905135308 | 23 | 212 | 6.4 | 16.1 | 0.00 | 0.03 | 0.00 | 80 | 976.1 |
| 20260905135207 | 23 | 198 | 8.0 | 16.1 | 0.00 | 0.03 | 0.00 | 81 | 976.1 |
| 20260905135108 | 23 | 198 | 8.0 | 16.1 | 0.00 | 0.03 | 0.00 | 81 | 976.2 |
| 20260905135008 | 23 | 161 | 8.0 | 16.1 | 0.00 | 0.03 | 0.00 | 80 | 976.2 |
| 20260905134907 | 23 | 217 | 8.0 | 16.1 | 0.00 | 0.03 | 0.00 | 81 | 976.1 |
| 20260905134809 | 23 | 182 | 8.0 | 16.1 | 0.00 | 0.03 | 0.00 | 80 | 976.1 |
| 20260905134708 | 23 | 215 | 8.0 | 16.1 | 0.00 | 0.03 | 0.00 | 80 | 976.1 |
| 20260905134607 | 23 | 204 | 6.4 | 16.1 | 0.00 | 0.03 | 0.00 | 81 | 976.0 |
| 20260905134508 | 23 | 168 | 6.4 | 16.1 | 0.00 | 0.03 | 0.00 | 80 | 976.0 |
| 20260905134409 | 23 | 215 | 6.4 | 16.1 | 0.00 | 0.03 | 0.00 | 81 | 976.0 |
| 20260905134308 | 23 | 214 | 6.4 | 16.1 | 0.00 | 0.03 | 0.00 | 81 | 976.0 |
| 20260905134209 | 23 | 202 | 6.4 | 16.1 | 0.00 | 0.03 | 0.00 | 80 | 976.0 |
| 20260905134105 | 23 | 212 | 6.4 | 16.1 | 0.00 | 0.03 | 0.00 | 81 | 976.0 |
| 20260905134005 | 23 | 210 | 6.4 | 12.9 | 0.00 | 0.03 | 0.00 | 81 | 976.0 |
| 20260905133904 | 23 | 207 | 6.4 | 11.3 | 0.00 | 0.03 | 0.00 | 81 | 976.0 |
| 20260905133804 | 23 | 188 | 6.4 | 11.3 | 0.00 | 0.03 | 0.00 | 82 | 976.0 |
| 20260905133704 | 23 | 209 | 6.4 | 11.3 | 0.00 | 0.03 | 0.00 | 82 | 976.0 |
| 20260905133605 | 23 | 202 | 6.4 | 11.3 | 0.00 | 0.03 | 0.00 | 83 | 976.0 |
| 20260905133502 | 23 | 195 | 6.4 | 11.3 | 0.00 | 0.03 | 0.00 | 82 | 976.0 |
| 20260905133401 | 23 | 155 | 6.4 | 11.3 | 0.00 | 0.03 | 0.00 | 82 | 976.1 |
| 20260905133302 | 23 | 165 | 4.8 | 11.3 | 0.00 | 0.03 | 0.00 | 82 | 976.1 |
| 20260905133202 | 22 | 194 | 4.8 | 9.7 | 0.00 | 0.03 | 0.00 | 83 | 976.2 |
| 20260905133103 | 22 | 160 | 4.8 | 9.7 | 0.00 | 0.03 | 0.00 | 84 | 976.3 |
| 20260905133001 | 22 | 155 | 4.8 | 9.7 | 0.00 | 0.03 | 0.00 | 83 | 976.4 |
| 20260905132902 | 22 | 219 | 4.8 | 8.0 | 0.00 | 0.03 | 0.00 | 83 | 976.4 |
| 20260905132802 | 22 | 230 | 4.8 | 8.0 | 0.00 | 0.03 | 0.00 | 84 | 976.4 |
| 20260905132701 | 22 | 210 | 4.8 | 9.7 | 0.00 | 0.03 | 0.00 | 84 | 976.4 |
| 20260905132603 | 22 | 218 | 4.8 | 11.3 | 0.00 | 0.03 | 0.00 | 84 | 976.4 |
| 20260905132502 | 22 | 211 | 4.8 | 11.3 | 0.00 | 0.03 | 0.00 | 84 | 976.4 |
| 20260905132402 | 22 | 224 | 4.8 | 11.3 | 0.00 | 0.03 | 0.00 | 84 | 976.4 |
| 20260905132305 | 22 | 245 | 4.8 | 11.3 | 0.00 | 0.03 | 0.00 | 85 | 976.3 |
| 20260905132202 | 22 | 130 | 4.8 | 11.3 | 0.00 | 0.03 | 0.00 | 85 | 976.3 |
| 20260905132102 | 22 | 118 | 4.8 | 11.3 | 0.00 | 0.03 | 0.00 | 85 | 976.3 |
| 20260905132002 | 22 | 128 | 4.8 | 11.3 | 0.00 | 0.03 | 0.00 | 86 | 976.4 |
| 20260905131902 | 22 | 215 | 4.8 | 11.3 | 0.00 | 0.03 | 0.00 | 85 | 976.3 |
| 20260905131803 | 21 | 127 | 4.8 | 11.3 | 0.00 | 0.03 | 0.00 | 86 | 976.3 |
| 20260905131702 | 21 | 145 | 4.8 | 11.3 | 0.00 | 0.03 | 0.00 | 86 | 976.3 |
| 20260905131602 | 21 | 203 | 4.8 | 11.3 | 0.00 | 0.03 | 0.00 | 87 | 976.4 |
| 20260905131502 | 21 | 184 | 4.8 | 11.3 | 0.00 | 0.03 | 0.00 | 86 | 976.4 |
| 20260905131402 | 21 | 196 | 4.8 | 11.3 | 0.00 | 0.03 | 0.00 | 87 | 976.4 |
| 20260905131302 | 21 | 142 | 4.8 | 9.7 | 0.00 | 0.03 | 0.00 | 87 | 976.5 |
| 20260905131200 | 21 | 213 | 4.8 | 9.7 | 0.00 | 0.03 | 0.00 | 88 | 976.6 |
| 20260905131101 | 21 | 204 | 4.8 | 9.7 | 0.00 | 0.03 | 0.00 | 88 | 976.6 |
| 20260905131001 | 21 | 203 | 4.8 | 9.7 | 0.00 | 0.03 | 0.00 | 87 | 976.7 |
| 20260905130903 | 21 | 206 | 4.8 | 9.7 | 0.00 | 0.03 | 0.00 | 87 | 976.7 |
| 20260905130802 | 21 | 205 | 4.8 | 9.7 | 0.00 | 0.03 | 0.00 | 87 | 976.8 |
| 20260905130703 | 21 | 160 | 4.8 | 9.7 | 0.00 | 0.03 | 0.00 | 87 | 976.8 |
| 20260905130602 | 21 | 129 | 4.8 | 11.3 | 0.00 | 0.03 | 0.00 | 87 | 976.7 |
| 20260905130502 | 21 | 127 | 4.8 | 11.3 | 0.00 | 0.03 | 0.00 | 87 | 976.8 |
| 20260905130402 | 21 | 150 | 4.8 | 11.3 | 0.00 | 0.03 | 0.00 | 87 | 976.8 |
| 20260905130301 | 21 | 120 | 4.8 | 11.3 | 0.00 | 0.03 | 0.00 | 88 | 976.8 |
| 20260905130202 | 21 | 127 | 4.8 | 11.3 | 0.00 | 0.03 | 0.00 | 88 | 976.8 |
| 20260905130002 | 20 | 127 | 4.8 | 11.3 | 0.00 | 0.03 | 0.00 | 88 | 976.7 |
| 20260905125901 | 20 | 132 | 6.4 | 11.3 | 0.00 | 0.03 | 0.00 | 88 | 976.7 |
| 20260905125801 | 20 | 132 | 6.4 | 11.3 | 0.00 | 0.03 | 0.00 | 88 | 976.6 |
| 20260905125701 | 20 | 122 | 6.4 | 11.3 | 0.00 | 0.03 | 0.00 | 88 | 976.7 |
| 20260905125602 | 20 | 134 | 6.4 | 11.3 | 0.00 | 0.03 | 0.00 | 88 | 976.6 |
| 20260905125502 | 20 | 133 | 6.4 | 11.3 | 0.00 | 0.03 | 0.00 | 88 | 976.6 |
| 20260905125403 | 20 | 126 | 6.4 | 11.3 | 0.00 | 0.03 | 0.00 | 88 | 976.6 |
| 20260905125305 | 20 | 150 | 6.4 | 11.3 | 0.00 | 0.03 | 0.00 | 88 | 976.6 |
| 20260905125202 | 20 | 129 | 6.4 | 11.3 | 0.00 | 0.03 | 0.00 | 88 | 976.6 |
| 20260905125102 | 20 | 126 | 6.4 | 11.3 | 0.00 | 0.03 | 0.00 | 88 | 976.6 |
| 20260905125001 | 20 | 140 | 6.4 | 11.3 | 0.00 | 0.03 | 0.00 | 88 | 976.6 |
| 20260905124901 | 20 | 127 | 6.4 | 11.3 | 0.00 | 0.03 | 0.00 | 88 | 976.6 |
| 20260905124801 | 20 | 136 | 6.4 | 11.3 | 0.00 | 0.03 | 0.00 | 88 | 976.7 |
| 20260905124701 | 20 | 121 | 6.4 | 11.3 | 0.00 | 0.03 | 0.00 | 88 | 976.7 |
| 20260905124602 | 20 | 174 | 6.4 | 11.3 | 0.00 | 0.03 | 0.00 | 89 | 976.7 |
| 20260905124501 | 20 | 147 | 6.4 | 12.9 | 0.00 | 0.03 | 0.00 | 89 | 976.7 |
| 20260905124403 | 20 | 153 | 6.4 | 12.9 | 0.00 | 0.03 | 0.00 | 88 | 976.7 |
| 20260905124301 | 20 | 113 | 6.4 | 12.9 | 0.00 | 0.03 | 0.00 | 88 | 976.7 |
| 20260905124203 | 20 | 128 | 6.4 | 12.9 | 0.00 | 0.03 | 0.00 | 88 | 976.8 |
| 20260905124101 | 20 | 124 | 6.4 | 12.9 | 0.00 | 0.03 | 0.00 | 89 | 976.8 |
| 20260905124002 | 20 | 123 | 6.4 | 12.9 | 0.00 | 0.03 | 0.00 | 89 | 976.8 |
| 20260905123903 | 20 | 122 | 6.4 | 12.9 | 0.00 | 0.03 | 0.00 | 89 | 976.8 |
| 20260905123801 | 20 | 145 | 6.4 | 12.9 | 0.00 | 0.03 | 0.00 | 89 | 976.8 |
| 20260905123701 | 20 | 136 | 6.4 | 12.9 | 0.00 | 0.03 | 0.00 | 89 | 976.8 |
| 20260905123601 | 20 | 120 | 6.4 | 12.9 | 0.00 | 0.03 | 0.00 | 89 | 976.8 |
| 20260905123501 | 20 | 143 | 6.4 | 12.9 | 0.00 | 0.03 | 0.00 | 89 | 976.8 |
| 20260905123403 | 20 | 144 | 6.4 | 12.9 | 0.00 | 0.03 | 0.00 | 89 | 976.8 |
| 20260905123302 | 20 | 146 | 6.4 | 12.9 | 0.00 | 0.03 | 0.00 | 89 | 976.8 |
| 20260905123202 | 20 | 109 | 6.4 | 12.9 | 0.00 | 0.03 | 0.00 | 89 | 976.8 |
| 20260905123101 | 20 | 145 | 6.4 | 12.9 | 0.00 | 0.03 | 0.00 | 89 | 976.8 |
| 20260905123001 | 20 | 123 | 6.4 | 11.3 | 0.00 | 0.03 | 0.00 | 89 | 976.8 |
| 20260905122901 | 20 | 127 | 4.8 | 11.3 | 0.00 | 0.03 | 0.00 | 89 | 976.8 |
| 20260905122802 | 20 | 123 | 4.8 | 11.3 | 0.00 | 0.03 | 0.00 | 89 | 976.8 |
| 20260905122703 | 20 | 122 | 4.8 | 11.3 | 0.00 | 0.03 | 0.00 | 89 | 976.7 |
| 20260905122601 | 20 | 124 | 4.8 | 11.3 | 0.00 | 0.03 | 0.00 | 89 | 976.7 |
| 20260905122501 | 20 | 115 | 4.8 | 11.3 | 0.00 | 0.03 | 0.00 | 89 | 976.7 |
| 20260905122402 | 20 | 116 | 3.2 | 11.3 | 0.00 | 0.03 | 0.00 | 89 | 976.7 |
| 20260905122306 | 20 | 113 | 3.2 | 11.3 | 0.00 | 0.03 | 0.00 | 89 | 976.7 |
| 20260905122203 | 20 | 121 | 3.2 | 11.3 | 0.00 | 0.03 | 0.00 | 89 | 976.8 |
| 20260905122103 | 20 | 120 | 3.2 | 11.3 | 0.00 | 0.03 | 0.00 | 90 | 976.8 |
| 20260905122003 | 20 | 117 | 3.2 | 11.3 | 0.00 | 0.03 | 0.00 | 89 | 976.8 |
| 20260905121902 | 20 | 116 | 3.2 | 11.3 | 0.00 | 0.03 | 0.00 | 90 | 976.7 |
| 20260905121802 | 20 | 117 | 3.2 | 11.3 | 0.00 | 0.03 | 0.00 | 89 | 976.7 |
| 20260905121701 | 20 | 117 | 3.2 | 11.3 | 0.00 | 0.03 | 0.00 | 89 | 976.7 |
| 20260905121601 | 20 | 139 | 3.2 | 11.3 | 0.00 | 0.03 | 0.00 | 89 | 976.7 |
| 20260905121502 | 20 | 129 | 3.2 | 11.3 | 0.00 | 0.03 | 0.00 | 89 | 976.7 |
| 20260905121359 | 20 | 135 | 3.2 | 11.3 | 0.00 | 0.03 | 0.00 | 89 | 976.6 |
| 20260905121255 | 20 | 135 | 4.8 | 11.3 | 0.00 | 0.03 | 0.00 | 89 | 976.5 |
| 20260905121157 | 20 | 117 | 4.8 | 11.3 | 0.00 | 0.03 | 0.00 | 89 | 976.5 |
| 20260905121056 | 20 | 117 | 4.8 | 11.3 | 0.00 | 0.03 | 0.00 | 89 | 976.5 |
| 20260905120956 | 20 | 119 | 4.8 | 11.3 | 0.00 | 0.03 | 0.00 | 89 | 976.4 |
| 20260905120852 | 20 | 119 | 4.8 | 11.3 | 0.00 | 0.03 | 0.00 | 89 | 976.4 |
| 20260905120750 | 20 | 115 | 4.8 | 11.3 | 0.00 | 0.03 | 0.00 | 89 | 976.3 |
| 20260905120649 | 20 | 155 | 4.8 | 11.3 | 0.00 | 0.03 | 0.00 | 89 | 976.2 |
| 20260905120549 | 20 | 131 | 3.2 | 8.0 | 0.00 | 0.03 | 0.00 | 89 | 976.2 |
| 20260905120450 | 20 | 150 | 3.2 | 8.0 | 0.00 | 0.03 | 0.00 | 89 | 976.2 |
| 20260905120344 | 20 | 136 | 3.2 | 9.7 | 0.00 | 0.03 | 0.00 | 89 | 976.2 |
| 20260905120243 | 20 | 157 | 3.2 | 9.7 | 0.00 | 0.03 | 0.00 | 89 | 976.2 |
| 20260905120144 | 20 | 115 | 3.2 | 9.7 | 0.00 | 0.03 | 0.00 | 89 | 976.2 |
| 20260905120043 | 20 | 152 | 3.2 | 9.7 | 0.00 | 0.03 | 0.00 | 89 | 976.2 |
| 20260905115944 | 20 | 158 | 3.2 | 9.7 | 0.00 | 0.03 | 0.00 | 89 | 976.2 |
| 20260905115843 | 20 | 122 | 3.2 | 9.7 | 0.00 | 0.03 | 0.00 | 89 | 976.2 |
| 20260905115742 | 20 | 122 | 3.2 | 9.7 | 0.00 | 0.03 | 0.00 | 89 | 976.2 |
| 20260905115641 | 20 | 122 | 3.2 | 9.7 | 0.00 | 0.03 | 0.00 | 89 | 976.3 |
| 20260905115540 | 20 | 149 | 3.2 | 9.7 | 0.00 | 0.03 | 0.00 | 89 | 976.2 |
| 20260905115438 | 20 | 147 | 3.2 | 9.7 | 0.00 | 0.03 | 0.00 | 89 | 976.2 |
| 20260905115335 | 20 | 126 | 3.2 | 8.0 | 0.00 | 0.03 | 0.00 | 89 | 976.3 |
| 20260905115236 | 20 | 126 | 3.2 | 8.0 | 0.00 | 0.03 | 0.00 | 89 | 976.3 |
| 20260905115135 | 20 | 116 | 3.2 | 8.0 | 0.00 | 0.03 | 0.00 | 89 | 976.3 |
| 20260905115033 | 20 | 116 | 3.2 | 12.9 | 0.00 | 0.03 | 0.00 | 89 | 976.3 |
| 20260905114934 | 20 | 116 | 3.2 | 12.9 | 0.00 | 0.03 | 0.00 | 89 | 976.3 |
| 20260905114834 | 20 | 116 | 4.8 | 12.9 | 0.00 | 0.03 | 0.00 | 89 | 976.4 |
| 20260905114734 | 20 | 116 | 4.8 | 12.9 | 0.00 | 0.03 | 0.00 | 88 | 976.4 |
| 20260905114634 | 20 | 116 | 4.8 | 12.9 | 0.00 | 0.03 | 0.00 | 88 | 976.4 |
| 20260905114532 | 20 | 116 | 4.8 | 12.9 | 0.00 | 0.03 | 0.00 | 88 | 976.4 |
| 20260905114433 | 20 | 133 | 4.8 | 12.9 | 0.00 | 0.03 | 0.00 | 88 | 976.3 |
| 20260905114331 | 20 | 119 | 4.8 | 12.9 | 0.00 | 0.03 | 0.00 | 88 | 976.4 |
| 20260905114231 | 20 | 122 | 4.8 | 12.9 | 0.00 | 0.03 | 0.00 | 88 | 976.3 |
| 20260905114131 | 20 | 113 | 4.8 | 12.9 | 0.00 | 0.03 | 0.00 | 88 | 976.4 |
| 20260905114031 | 20 | 121 | 6.4 | 14.5 | 0.00 | 0.03 | 0.00 | 88 | 976.4 |
| 20260905113930 | 20 | 112 | 6.4 | 14.5 | 0.00 | 0.03 | 0.00 | 88 | 976.4 |
| 20260905113829 | 20 | 153 | 6.4 | 17.7 | 0.00 | 0.03 | 0.00 | 88 | 976.4 |
| 20260905113729 | 20 | 129 | 8.0 | 17.7 | 0.00 | 0.03 | 0.00 | 88 | 976.5 |
| 20260905113630 | 20 | 134 | 8.0 | 17.7 | 0.00 | 0.03 | 0.00 | 88 | 976.4 |
| 20260905113530 | 20 | 134 | 8.0 | 17.7 | 0.00 | 0.03 | 0.00 | 88 | 976.5 |
| 20260905113430 | 20 | 121 | 9.7 | 19.3 | 0.00 | 0.03 | 0.00 | 88 | 976.4 |
| 20260905113329 | 20 | 89 | 9.7 | 19.3 | 0.00 | 0.03 | 0.00 | 87 | 976.4 |
| 20260905113231 | 20 | 137 | 9.7 | 19.3 | 0.00 | 0.03 | 0.00 | 87 | 976.4 |
| 20260905113130 | 20 | 138 | 9.7 | 19.3 | 0.00 | 0.03 | 0.00 | 87 | 976.4 |
| 20260905113029 | 20 | 134 | 9.7 | 19.3 | 0.00 | 0.03 | 0.00 | 87 | 976.4 |
| 20260905112930 | 20 | 166 | 8.0 | 19.3 | 0.00 | 0.03 | 0.00 | 87 | 976.4 |
| 20260905112829 | 20 | 131 | 8.0 | 19.3 | 0.00 | 0.03 | 0.00 | 87 | 976.4 |
| 20260905112729 | 20 | 124 | 6.4 | 19.3 | 0.00 | 0.03 | 0.00 | 87 | 976.3 |
| 20260905112629 | 20 | 127 | 6.4 | 19.3 | 0.00 | 0.03 | 0.00 | 87 | 976.4 |
| 20260905112531 | 20 | 94 | 6.4 | 19.3 | 0.00 | 0.03 | 0.00 | 87 | 976.4 |
| 20260905112429 | 20 | 118 | 6.4 | 16.1 | 0.00 | 0.03 | 0.00 | 87 | 976.4 |
| 20260905112329 | 20 | 125 | 4.8 | 12.9 | 0.00 | 0.03 | 0.00 | 87 | 976.4 |
| 20260905112230 | 20 | 117 | 4.8 | 12.9 | 0.00 | 0.03 | 0.00 | 87 | 976.3 |
| 20260905112128 | 20 | 141 | 4.8 | 12.9 | 0.00 | 0.03 | 0.00 | 87 | 976.4 |
| 20260905112030 | 20 | 129 | 4.8 | 12.9 | 0.00 | 0.03 | 0.00 | 87 | 976.4 |
| 20260905111929 | 20 | 124 | 4.8 | 12.9 | 0.00 | 0.03 | 0.00 | 87 | 976.4 |
| 20260905111830 | 20 | 134 | 6.4 | 16.1 | 0.00 | 0.03 | 0.00 | 87 | 976.4 |
| 20260905111730 | 20 | 117 | 4.8 | 16.1 | 0.00 | 0.03 | 0.00 | 87 | 976.4 |
| 20260905111631 | 20 | 99 | 4.8 | 16.1 | 0.00 | 0.03 | 0.00 | 87 | 976.4 |
| 20260905111530 | 20 | 146 | 4.8 | 16.1 | 0.00 | 0.03 | 0.00 | 87 | 976.4 |
| 20260905111430 | 20 | 135 | 4.8 | 16.1 | 0.00 | 0.03 | 0.00 | 87 | 976.4 |
| 20260905111330 | 20 | 134 | 6.4 | 22.5 | 0.00 | 0.03 | 0.00 | 87 | 976.4 |
| 20260905111229 | 20 | 112 | 6.4 | 22.5 | 0.00 | 0.03 | 0.00 | 87 | 976.4 |
| 20260905111129 | 20 | 143 | 6.4 | 22.5 | 0.00 | 0.03 | 0.00 | 87 | 976.4 |
| 20260905111030 | 20 | 106 | 6.4 | 22.5 | 0.00 | 0.03 | 0.00 | 87 | 976.5 |
| 20260905110931 | 20 | 121 | 6.4 | 22.5 | 0.00 | 0.03 | 0.00 | 86 | 976.5 |
| 20260905110829 | 20 | 113 | 6.4 | 22.5 | 0.00 | 0.03 | 0.00 | 86 | 976.6 |
| 20260905110729 | 20 | 115 | 6.4 | 22.5 | 0.00 | 0.03 | 0.00 | 86 | 976.6 |
| 20260905110630 | 20 | 124 | 6.4 | 22.5 | 0.00 | 0.03 | 0.00 | 86 | 976.6 |
| 20260905110528 | 20 | 94 | 6.4 | 22.5 | 0.00 | 0.03 | 0.00 | 86 | 976.6 |
| 20260905110430 | 20 | 126 | 6.4 | 22.5 | 0.00 | 0.03 | 0.00 | 86 | 976.7 |
| 20260905110329 | 20 | 121 | 6.4 | 16.1 | 0.00 | 0.03 | 0.00 | 86 | 976.7 |
| 20260905110229 | 20 | 98 | 6.4 | 16.1 | 0.00 | 0.03 | 0.00 | 86 | 976.7 |
| 20260905110130 | 20 | 70 | 6.4 | 16.1 | 0.00 | 0.03 | 0.00 | 86 | 976.7 |
| 20260905110029 | 20 | 104 | 6.4 | 16.1 | 0.00 | 0.03 | 0.00 | 86 | 976.8 |
| 20260905105930 | 20 | 70 | 6.4 | 16.1 | 0.00 | 0.03 | 0.00 | 86 | 976.8 |
| 20260905105830 | 20 | 74 | 6.4 | 16.1 | 0.00 | 0.03 | 0.00 | 86 | 976.8 |
| 20260905105727 | 20 | 90 | 6.4 | 16.1 | 0.00 | 0.03 | 0.00 | 86 | 976.8 |
| 20260905105624 | 20 | 78 | 6.4 | 16.1 | 0.00 | 0.03 | 0.00 | 86 | 976.8 |
| 20260905105525 | 20 | 82 | 6.4 | 16.1 | 0.00 | 0.03 | 0.00 | 86 | 976.8 |
| 20260905105424 | 20 | 81 | 6.4 | 16.1 | 0.00 | 0.03 | 0.00 | 86 | 976.6 |
| 20260905105324 | 20 | 80 | 6.4 | 16.1 | 0.00 | 0.03 | 0.00 | 86 | 976.5 |
| 20260905105219 | 20 | 72 | 6.4 | 12.9 | 0.00 | 0.03 | 0.00 | 86 | 976.5 |
| 20260905105120 | 20 | 69 | 6.4 | 12.9 | 0.00 | 0.03 | 0.00 | 86 | 976.6 |
| 20260905105020 | 20 | 86 | 6.4 | 12.9 | 0.00 | 0.03 | 0.00 | 86 | 976.6 |
| 20260905104920 | 20 | 85 | 6.4 | 12.9 | 0.00 | 0.03 | 0.00 | 86 | 976.7 |
| 20260905104818 | 20 | 82 | 6.4 | 12.9 | 0.00 | 0.03 | 0.00 | 86 | 976.7 |
| 20260905104715 | 20 | 95 | 6.4 | 12.9 | 0.00 | 0.03 | 0.00 | 86 | 976.7 |
| 20260905104616 | 20 | 68 | 4.8 | 12.9 | 0.00 | 0.03 | 0.00 | 86 | 976.8 |
| 20260905104515 | 20 | 82 | 4.8 | 12.9 | 0.00 | 0.03 | 0.00 | 86 | 976.8 |
| 20260905104414 | 20 | 68 | 4.8 | 11.3 | 0.00 | 0.03 | 0.00 | 86 | 976.7 |
| 20260905104312 | 20 | 68 | 4.8 | 11.3 | 0.00 | 0.03 | 0.00 | 86 | 976.6 |
| 20260905104207 | 20 | 96 | 4.8 | 11.3 | 0.00 | 0.03 | 0.00 | 86 | 976.6 |
| 20260905104105 | 20 | 94 | 4.8 | 14.5 | 0.00 | 0.03 | 0.00 | 86 | 976.6 |
| 20260905104006 | 20 | 75 | 4.8 | 14.5 | 0.00 | 0.03 | 0.00 | 86 | 976.6 |
| 20260905103907 | 20 | 72 | 6.4 | 14.5 | 0.00 | 0.03 | 0.00 | 86 | 976.7 |
| 20260905103805 | 20 | 95 | 6.4 | 14.5 | 0.00 | 0.03 | 0.00 | 86 | 976.7 |
| 20260905103703 | 20 | 82 | 6.4 | 14.5 | 0.00 | 0.03 | 0.00 | 86 | 976.6 |
| 20260905103602 | 20 | 98 | 6.4 | 14.5 | 0.00 | 0.03 | 0.00 | 86 | 976.7 |
| 20260905103503 | 20 | 85 | 8.0 | 14.5 | 0.00 | 0.03 | 0.00 | 86 | 976.8 |
| 20260905103402 | 20 | 77 | 6.4 | 14.5 | 0.00 | 0.03 | 0.00 | 86 | 976.8 |
| 20260905103301 | 20 | 117 | 6.4 | 14.5 | 0.00 | 0.03 | 0.00 | 87 | 976.8 |
| 20260905103201 | 20 | 82 | 6.4 | 14.5 | 0.00 | 0.03 | 0.00 | 87 | 976.9 |
| 20260905103101 | 20 | 112 | 6.4 | 14.5 | 0.00 | 0.03 | 0.00 | 87 | 976.9 |
| 20260905103003 | 20 | 74 | 6.4 | 14.5 | 0.00 | 0.03 | 0.00 | 87 | 977.0 |
| 20260905102902 | 20 | 105 | 8.0 | 14.5 | 0.00 | 0.03 | 0.00 | 87 | 977.1 |
| 20260905102801 | 20 | 100 | 6.4 | 16.1 | 0.00 | 0.03 | 0.00 | 87 | 977.1 |
| 20260905102701 | 20 | 79 | 6.4 | 16.1 | 0.00 | 0.03 | 0.00 | 87 | 977.1 |
| 20260905102602 | 20 | 77 | 6.4 | 16.1 | 0.00 | 0.03 | 0.00 | 87 | 977.1 |
| 20260905102501 | 20 | 82 | 6.4 | 16.1 | 0.00 | 0.03 | 0.00 | 87 | 977.2 |
| 20260905102403 | 20 | 63 | 6.4 | 16.1 | 0.00 | 0.03 | 0.00 | 87 | 977.2 |
| 20260905102301 | 20 | 73 | 6.4 | 16.1 | 0.00 | 0.03 | 0.00 | 87 | 977.2 |
| 20260905102201 | 20 | 73 | 6.4 | 16.1 | 0.00 | 0.03 | 0.00 | 87 | 977.2 |
| 20260905102102 | 20 | 95 | 6.4 | 16.1 | 0.00 | 0.03 | 0.00 | 87 | 977.3 |
| 20260905102001 | 20 | 77 | 6.4 | 16.1 | 0.00 | 0.03 | 0.00 | 87 | 977.4 |
| 20260905101901 | 20 | 70 | 6.4 | 16.1 | 0.00 | 0.03 | 0.00 | 87 | 977.4 |
| 20260905101800 | 20 | 71 | 6.4 | 12.9 | 0.00 | 0.03 | 0.00 | 87 | 977.3 |
| 20260905101700 | 20 | 59 | 6.4 | 12.9 | 0.00 | 0.03 | 0.00 | 87 | 977.3 |
| 20260905101601 | 20 | 81 | 6.4 | 16.1 | 0.00 | 0.03 | 0.00 | 87 | 977.3 |
| 20260905101501 | 20 | 57 | 6.4 | 16.1 | 0.00 | 0.03 | 0.00 | 87 | 977.2 |
| 20260905101403 | 20 | 82 | 8.0 | 16.1 | 0.00 | 0.03 | 0.00 | 87 | 977.2 |
| 20260905101301 | 20 | 84 | 8.0 | 16.1 | 0.00 | 0.03 | 0.00 | 87 | 977.1 |
| 20260905101202 | 20 | 75 | 8.0 | 16.1 | 0.00 | 0.03 | 0.00 | 87 | 977.1 |
| 20260905101101 | 20 | 99 | 8.0 | 16.1 | 0.00 | 0.03 | 0.00 | 87 | 977.1 |
| 20260905101002 | 20 | 135 | 8.0 | 16.1 | 0.00 | 0.03 | 0.00 | 87 | 977.0 |
| 20260905100902 | 20 | 75 | 8.0 | 16.1 | 0.00 | 0.03 | 0.00 | 86 | 977.0 |
| 20260905100802 | 20 | 68 | 9.7 | 16.1 | 0.00 | 0.03 | 0.00 | 86 | 977.0 |
| 20260905100702 | 20 | 72 | 9.7 | 17.7 | 0.00 | 0.03 | 0.00 | 86 | 977.0 |
| 20260905100601 | 20 | 65 | 8.0 | 17.7 | 0.00 | 0.03 | 0.00 | 86 | 977.0 |
| 20260905100502 | 21 | 77 | 9.7 | 17.7 | 0.00 | 0.03 | 0.00 | 86 | 977.1 |
| 20260905100402 | 21 | 78 | 8.0 | 17.7 | 0.00 | 0.03 | 0.00 | 86 | 977.1 |
| 20260905100301 | 21 | 68 | 8.0 | 17.7 | 0.00 | 0.03 | 0.00 | 86 | 977.2 |
| 20260905100201 | 21 | 71 | 8.0 | 17.7 | 0.00 | 0.03 | 0.00 | 85 | 977.3 |
| 20260905100101 | 21 | 67 | 8.0 | 17.7 | 0.00 | 0.03 | 0.00 | 85 | 977.2 |
| 20260905100002 | 21 | 68 | 8.0 | 17.7 | 0.00 | 0.03 | 0.00 | 85 | 977.2 |
| 20260905095901 | 21 | 72 | 8.0 | 17.7 | 0.00 | 0.03 | 0.00 | 85 | 977.1 |
| 20260905095800 | 21 | 77 | 8.0 | 17.7 | 0.00 | 0.03 | 0.00 | 85 | 977.1 |
| 20260905095701 | 21 | 70 | 8.0 | 16.1 | 0.00 | 0.03 | 0.00 | 85 | 977.1 |
| 20260905095601 | 21 | 63 | 8.0 | 16.1 | 0.00 | 0.03 | 0.00 | 85 | 977.0 |
| 20260905095501 | 21 | 96 | 9.7 | 16.1 | 0.00 | 0.03 | 0.00 | 84 | 977.1 |
| 20260905095401 | 21 | 67 | 9.7 | 19.3 | 0.00 | 0.03 | 0.00 | 84 | 977.1 |
| 20260905095300 | 21 | 105 | 9.7 | 19.3 | 0.00 | 0.03 | 0.00 | 84 | 977.0 |
| 20260905095202 | 21 | 75 | 9.7 | 19.3 | 0.00 | 0.03 | 0.00 | 84 | 977.1 |
| 20260905095102 | 21 | 68 | 9.7 | 19.3 | 0.00 | 0.03 | 0.00 | 84 | 977.1 |
| 20260905095001 | 21 | 65 | 9.7 | 19.3 | 0.00 | 0.03 | 0.00 | 84 | 977.1 |
| 20260905094901 | 21 | 82 | 9.7 | 19.3 | 0.00 | 0.03 | 0.00 | 84 | 977.2 |
| 20260905094801 | 21 | 77 | 9.7 | 19.3 | 0.00 | 0.03 | 0.00 | 83 | 977.2 |
| 20260905094702 | 21 | 67 | 9.7 | 19.3 | 0.00 | 0.03 | 0.00 | 83 | 977.2 |
| 20260905094602 | 21 | 74 | 9.7 | 19.3 | 0.00 | 0.03 | 0.00 | 83 | 977.2 |
| 20260905094503 | 21 | 72 | 9.7 | 19.3 | 0.00 | 0.03 | 0.00 | 83 | 977.2 |
| 20260905094403 | 21 | 70 | 9.7 | 17.7 | 0.00 | 0.03 | 0.00 | 83 | 977.1 |
| 20260905094301 | 21 | 84 | 9.7 | 17.7 | 0.00 | 0.03 | 0.00 | 82 | 977.0 |
| 20260905094201 | 21 | 63 | 9.7 | 24.1 | 0.00 | 0.03 | 0.00 | 82 | 977.0 |
| 20260905094101 | 21 | 74 | 9.7 | 24.1 | 0.00 | 0.03 | 0.00 | 82 | 977.0 |
| 20260905094001 | 21 | 77 | 9.7 | 24.1 | 0.00 | 0.03 | 0.00 | 82 | 976.9 |
| 20260905093902 | 21 | 78 | 9.7 | 24.1 | 0.00 | 0.03 | 0.00 | 82 | 976.9 |
| 20260905093801 | 21 | 71 | 9.7 | 24.1 | 0.00 | 0.03 | 0.00 | 82 | 977.0 |
| 20260905093700 | 21 | 76 | 9.7 | 24.1 | 0.00 | 0.03 | 0.00 | 82 | 977.0 |
| 20260905093601 | 21 | 71 | 9.7 | 24.1 | 0.00 | 0.03 | 0.00 | 81 | 977.0 |
| 20260905093501 | 21 | 72 | 9.7 | 24.1 | 0.00 | 0.03 | 0.00 | 81 | 977.0 |
| 20260905093401 | 21 | 80 | 9.7 | 24.1 | 0.00 | 0.03 | 0.00 | 81 | 977.0 |
| 20260905093301 | 21 | 68 | 9.7 | 24.1 | 0.00 | 0.03 | 0.00 | 81 | 977.1 |
| 20260905093202 | 21 | 68 | 9.7 | 20.9 | 0.00 | 0.03 | 0.00 | 81 | 977.1 |
| 20260905093101 | 21 | 63 | 11.3 | 22.5 | 0.00 | 0.03 | 0.00 | 81 | 977.1 |
| 20260905093001 | 21 | 74 | 11.3 | 22.5 | 0.00 | 0.03 | 0.00 | 81 | 977.1 |
| 20260905092902 | 21 | 96 | 11.3 | 22.5 | 0.00 | 0.03 | 0.00 | 81 | 977.1 |
| 20260905092801 | 21 | 75 | 12.9 | 22.5 | 0.00 | 0.03 | 0.00 | 81 | 977.1 |
| 20260905092701 | 21 | 124 | 12.9 | 22.5 | 0.00 | 0.03 | 0.00 | 81 | 977.1 |
| 20260905092603 | 21 | 63 | 14.5 | 22.5 | 0.00 | 0.03 | 0.00 | 81 | 977.1 |
| 20260905092501 | 21 | 89 | 16.1 | 27.4 | 0.00 | 0.03 | 0.00 | 81 | 977.0 |
| 20260905092402 | 21 | 110 | 14.5 | 27.4 | 0.00 | 0.03 | 0.00 | 80 | 977.1 |
| 20260905092305 | 21 | 68 | 16.1 | 27.4 | 0.00 | 0.03 | 0.00 | 81 | 977.0 |
| 20260905092201 | 21 | 95 | 16.1 | 29.0 | 0.00 | 0.03 | 0.00 | 81 | 976.9 |
| 20260905092101 | 22 | 77 | 16.1 | 29.0 | 0.00 | 0.03 | 0.00 | 81 | 976.9 |
| 20260905092001 | 22 | 79 | 16.1 | 29.0 | 0.00 | 0.03 | 0.00 | 81 | 976.9 |
| 20260905091902 | 22 | 78 | 17.7 | 29.0 | 0.00 | 0.03 | 0.00 | 80 | 976.9 |
| 20260905091801 | 22 | 79 | 16.1 | 29.0 | 0.00 | 0.03 | 0.00 | 80 | 976.9 |
| 20260905091701 | 22 | 65 | 16.1 | 29.0 | 0.00 | 0.03 | 0.00 | 80 | 976.8 |
| 20260905091601 | 22 | 80 | 14.5 | 29.0 | 0.00 | 0.03 | 0.00 | 80 | 976.9 |
| 20260905091501 | 22 | 60 | 14.5 | 29.0 | 0.00 | 0.03 | 0.00 | 80 | 977.1 |
| 20260905091401 | 22 | 61 | 14.5 | 29.0 | 0.00 | 0.03 | 0.00 | 80 | 976.9 |
| 20260905091302 | 22 | 75 | 14.5 | 29.0 | 0.00 | 0.03 | 0.00 | 80 | 976.9 |
| 20260905091201 | 22 | 66 | 12.9 | 30.6 | 0.00 | 0.03 | 0.00 | 80 | 976.8 |
| 20260905091100 | 22 | 75 | 12.9 | 30.6 | 0.00 | 0.03 | 0.00 | 80 | 976.8 |
| 20260905091002 | 22 | 70 | 12.9 | 30.6 | 0.00 | 0.03 | 0.00 | 81 | 976.9 |
| 20260905090901 | 22 | 85 | 11.3 | 30.6 | 0.00 | 0.03 | 0.00 | 82 | 976.9 |
| 20260905090801 | 22 | 58 | 9.7 | 30.6 | 0.00 | 0.03 | 0.00 | 84 | 976.8 |
| 20260905090701 | 23 | 56 | 9.7 | 30.6 | 0.00 | 0.03 | 0.00 | 85 | 976.8 |
| 20260905090601 | 23 | 77 | 8.0 | 30.6 | 0.00 | 0.03 | 0.00 | 85 | 976.7 |
| 20260905090502 | 23 | 100 | 8.0 | 30.6 | 0.00 | 0.03 | 0.00 | 85 | 976.7 |
| 20260905090401 | 23 | 75 | 6.4 | 30.6 | 0.00 | 0.03 | 0.00 | 85 | 976.6 |
| 20260905090301 | 23 | 69 | 4.8 | 30.6 | 0.00 | 0.03 | 0.00 | 86 | 976.6 |
| 20260905090201 | 23 | 87 | 3.2 | 20.9 | 0.00 | 0.03 | 0.00 | 87 | 976.6 |
| 20260905090002 | 23 | 74 | 1.6 | 11.3 | 0.00 | 0.03 | 0.00 | 90 | 976.4 |
| 20260905085901 | 23 | 62 | 0.0 | 6.4 | 0.00 | 0.03 | 0.00 | 90 | 976.0 |
| 20260905085801 | 23 | 214 | 0.0 | 1.6 | 0.00 | 0.03 | 0.00 | 90 | 975.9 |
| 20260905085702 | 23 | 214 | 0.0 | 1.6 | 0.00 | 0.03 | 0.00 | 90 | 975.9 |
| 20260905085601 | 23 | 214 | 0.0 | 1.6 | 0.00 | 0.03 | 0.00 | 90 | 975.8 |
| 20260905085501 | 23 | 214 | 0.0 | 1.6 | 0.00 | 0.03 | 0.00 | 90 | 975.8 |
| 20260905085400 | 23 | 214 | 0.0 | 1.6 | 0.00 | 0.03 | 0.00 | 90 | 975.8 |
| 20260905085305 | 23 | 214 | 0.0 | 1.6 | 0.00 | 0.03 | 0.00 | 90 | 975.8 |
| 20260905085201 | 23 | 214 | 0.0 | 1.6 | 0.00 | 0.03 | 0.00 | 90 | 975.8 |
| 20260905085101 | 23 | 214 | 0.0 | 1.6 | 0.00 | 0.03 | 0.00 | 90 | 975.8 |
| 20260905085001 | 23 | 214 | 0.0 | 1.6 | 0.00 | 0.03 | 0.00 | 90 | 975.8 |
| 20260905084902 | 23 | 214 | 0.0 | 1.6 | 0.00 | 0.03 | 0.00 | 90 | 975.8 |
| 20260905084802 | 23 | 214 | 0.0 | 1.6 | 0.00 | 0.03 | 0.00 | 90 | 975.8 |
| 20260905084701 | 23 | 214 | 0.0 | 1.6 | 0.00 | 0.03 | 0.00 | 90 | 975.8 |
| 20260905084602 | 23 | 214 | 0.0 | 1.6 | 0.00 | 0.03 | 0.00 | 90 | 975.8 |
| 20260905084503 | 23 | 214 | 0.0 | 1.6 | 0.00 | 0.03 | 0.00 | 89 | 975.9 |
| 20260905084403 | 23 | 214 | 0.0 | 1.6 | 0.00 | 0.03 | 0.00 | 89 | 975.8 |
| 20260905084301 | 23 | 214 | 0.0 | 1.6 | 0.00 | 0.03 | 0.00 | 89 | 975.8 |
| 20260905084202 | 23 | 214 | 0.0 | 1.6 | 0.00 | 0.03 | 0.00 | 89 | 975.8 |
| 20260905084102 | 23 | 214 | 0.0 | 1.6 | 0.00 | 0.03 | 0.00 | 89 | 975.8 |
| 20260905084001 | 23 | 214 | 0.0 | 1.6 | 0.00 | 0.03 | 0.00 | 89 | 975.7 |
| 20260905083902 | 23 | 214 | 0.0 | 1.6 | 0.00 | 0.03 | 0.00 | 89 | 975.7 |
| 20260905083801 | 23 | 214 | 0.0 | 1.6 | 0.00 | 0.03 | 0.00 | 89 | 975.7 |
| 20260905083701 | 23 | 214 | 0.0 | 1.6 | 0.00 | 0.03 | 0.00 | 90 | 975.7 |
| 20260905083603 | 23 | 214 | 0.0 | 1.6 | 0.00 | 0.03 | 0.00 | 90 | 975.6 |
| 20260905083501 | 23 | 214 | 0.0 | 0.0 | 0.00 | 0.03 | 0.00 | 90 | 975.6 |
| 20260905083401 | 23 | 214 | 0.0 | 0.0 | 0.00 | 0.03 | 0.00 | 90 | 975.6 |
| 20260905083301 | 23 | 214 | 0.0 | 0.0 | 0.00 | 0.03 | 0.00 | 90 | 975.6 |
| 20260905083201 | 23 | 214 | 0.0 | 0.0 | 0.00 | 0.03 | 0.00 | 90 | 975.5 |
| 20260905083101 | 23 | 214 | 0.0 | 0.0 | 0.00 | 0.03 | 0.00 | 90 | 975.5 |
| 20260905083000 | 23 | 214 | 0.0 | 0.0 | 0.00 | 0.03 | 0.00 | 89 | 975.5 |
| 20260905082901 | 23 | 214 | 0.0 | 0.0 | 0.00 | 0.03 | 0.00 | 89 | 975.5 |
| 20260905082801 | 23 | 214 | 0.0 | 0.0 | 0.00 | 0.03 | 0.00 | 89 | 975.4 |
| 20260905082702 | 23 | 214 | 0.0 | 0.0 | 0.00 | 0.03 | 0.00 | 89 | 975.4 |
| 20260905082602 | 23 | 214 | 0.0 | 0.0 | 0.00 | 0.03 | 0.00 | 90 | 975.4 |
| 20260905082500 | 23 | 214 | 0.0 | 0.0 | 0.00 | 0.03 | 0.00 | 89 | 975.3 |
| 20260905082402 | 23 | 214 | 0.0 | 0.0 | 0.00 | 0.03 | 0.00 | 89 | 975.4 |
| 20260905082301 | 23 | 214 | 0.0 | 0.0 | 0.00 | 0.03 | 0.00 | 89 | 975.4 |
| 20260905082201 | 23 | 214 | 0.0 | 0.0 | 0.00 | 0.03 | 0.00 | 89 | 975.4 |
| 20260905082102 | 23 | 214 | 0.0 | 0.0 | 0.00 | 0.03 | 0.00 | 89 | 975.3 |
| 20260905082002 | 23 | 214 | 0.0 | 0.0 | 0.00 | 0.03 | 0.00 | 89 | 975.3 |
| 20260905081903 | 23 | 214 | 0.0 | 0.0 | 0.00 | 0.03 | 0.00 | 89 | 975.3 |
| 20260905081802 | 23 | 214 | 0.0 | 0.0 | 0.00 | 0.03 | 0.00 | 89 | 975.3 |
| 20260905081701 | 23 | 214 | 0.0 | 0.0 | 0.00 | 0.03 | 0.00 | 89 | 975.3 |
| 20260905081601 | 23 | 214 | 0.0 | 0.0 | 0.00 | 0.03 | 0.00 | 89 | 975.2 |
| 20260905081502 | 23 | 214 | 0.0 | 0.0 | 0.00 | 0.03 | 0.00 | 89 | 975.2 |
| 20260905081359 | 23 | 214 | 0.0 | 0.0 | 0.00 | 0.03 | 0.00 | 89 | 975.3 |
| 20260905081259 | 23 | 214 | 0.0 | 0.0 | 0.00 | 0.03 | 0.00 | 89 | 975.3 |
| 20260905081201 | 23 | 214 | 0.0 | 0.0 | 0.00 | 0.03 | 0.00 | 89 | 975.3 |
| 20260905081100 | 23 | 214 | 0.0 | 1.6 | 0.00 | 0.03 | 0.00 | 89 | 975.2 |
| 20260905080959 | 23 | 214 | 0.0 | 1.6 | 0.00 | 0.03 | 0.00 | 89 | 975.2 |
| 20260905080900 | 23 | 214 | 0.0 | 1.6 | 0.00 | 0.03 | 0.00 | 89 | 975.2 |
| 20260905080757 | 23 | 214 | 0.0 | 1.6 | 0.00 | 0.03 | 0.00 | 89 | 975.1 |
| 20260905080657 | 23 | 214 | 0.0 | 1.6 | 0.00 | 0.03 | 0.00 | 89 | 975.1 |
| 20260905080556 | 23 | 214 | 0.0 | 1.6 | 0.00 | 0.03 | 0.00 | 89 | 975.1 |
| 20260905080454 | 23 | 214 | 0.0 | 1.6 | 0.00 | 0.03 | 0.00 | 89 | 975.1 |
| 20260905080354 | 23 | 214 | 0.0 | 1.6 | 0.00 | 0.03 | 0.00 | 88 | 975.1 |
| 20260905080252 | 23 | 214 | 0.0 | 1.6 | 0.00 | 0.03 | 0.00 | 88 | 975.1 |
| 20260905080151 | 23 | 214 | 0.0 | 1.6 | 0.00 | 0.03 | 0.00 | 88 | 975.1 |
| 20260905080050 | 24 | 214 | 0.0 | 0.0 | 0.00 | 0.03 | 0.00 | 88 | 975.1 |
| 20260905075947 | 24 | 214 | 0.0 | 0.0 | 0.00 | 0.03 | 0.00 | 88 | 975.2 |
| 20260905075848 | 24 | 214 | 0.0 | 0.0 | 0.00 | 0.03 | 0.00 | 88 | 975.2 |
| 20260905075745 | 24 | 214 | 0.0 | 0.0 | 0.00 | 0.03 | 0.00 | 88 | 975.3 |
| 20260905075646 | 24 | 214 | 0.0 | 0.0 | 0.00 | 0.03 | 0.00 | 88 | 975.3 |
| 20260905075543 | 24 | 214 | 0.0 | 1.6 | 0.00 | 0.03 | 0.00 | 88 | 975.3 |
| 20260905075442 | 24 | 214 | 0.0 | 1.6 | 0.00 | 0.03 | 0.00 | 88 | 975.3 |
| 20260905075340 | 24 | 214 | 0.0 | 1.6 | 0.00 | 0.03 | 0.00 | 88 | 975.4 |
| 20260905075239 | 24 | 214 | 0.0 | 1.6 | 0.00 | 0.03 | 0.00 | 88 | 975.3 |
| 20260905075138 | 24 | 214 | 0.0 | 1.6 | 0.00 | 0.03 | 0.00 | 88 | 975.3 |
| 20260905075038 | 24 | 214 | 0.0 | 1.6 | 0.00 | 0.03 | 0.00 | 88 | 975.3 |
| 20260905074937 | 24 | 214 | 0.0 | 1.6 | 0.00 | 0.03 | 0.00 | 88 | 975.3 |
| 20260905074836 | 24 | 214 | 0.0 | 1.6 | 0.00 | 0.03 | 0.00 | 88 | 975.3 |
| 20260905074733 | 24 | 214 | 0.0 | 1.6 | 0.00 | 0.03 | 0.00 | 88 | 975.3 |
| 20260905074633 | 24 | 214 | 0.0 | 1.6 | 0.00 | 0.03 | 0.00 | 88 | 975.3 |
| 20260905074533 | 24 | 214 | 0.0 | 1.6 | 0.00 | 0.03 | 0.00 | 88 | 975.2 |
| 20260905074433 | 24 | 214 | 0.0 | 1.6 | 0.00 | 0.03 | 0.00 | 88 | 975.2 |
| 20260905074333 | 24 | 214 | 0.0 | 1.6 | 0.00 | 0.03 | 0.00 | 87 | 975.2 |
| 20260905074229 | 24 | 214 | 0.0 | 1.6 | 0.00 | 0.03 | 0.00 | 87 | 975.2 |
| 20260905074130 | 24 | 214 | 0.0 | 1.6 | 0.00 | 0.03 | 0.00 | 87 | 975.2 |
| 20260905074031 | 24 | 214 | 0.0 | 1.6 | 0.00 | 0.03 | 0.00 | 87 | 975.3 |
| 20260905073929 | 24 | 214 | 0.0 | 1.6 | 0.00 | 0.03 | 0.00 | 87 | 975.2 |
| 20260905073830 | 24 | 214 | 0.0 | 3.2 | 0.00 | 0.03 | 0.00 | 87 | 975.3 |
| 20260905073729 | 24 | 214 | 0.0 | 3.2 | 0.00 | 0.03 | 0.00 | 87 | 975.2 |
| 20260905073630 | 24 | 214 | 1.6 | 4.8 | 0.00 | 0.03 | 0.00 | 87 | 975.2 |
| 20260905073530 | 24 | 214 | 1.6 | 4.8 | 0.00 | 0.03 | 0.00 | 87 | 975.2 |
| 20260905073430 | 24 | 214 | 1.6 | 4.8 | 0.00 | 0.03 | 0.00 | 87 | 975.1 |
| 20260905073329 | 24 | 214 | 1.6 | 4.8 | 0.00 | 0.03 | 0.00 | 87 | 975.0 |
| 20260905073231 | 24 | 214 | 1.6 | 4.8 | 0.00 | 0.03 | 0.00 | 87 | 975.0 |
| 20260905073129 | 24 | 214 | 1.6 | 4.8 | 0.00 | 0.03 | 0.00 | 87 | 975.0 |
| 20260905073030 | 24 | 214 | 1.6 | 4.8 | 0.00 | 0.03 | 0.00 | 87 | 974.9 |
| 20260905072929 | 24 | 214 | 1.6 | 4.8 | 0.00 | 0.03 | 0.00 | 87 | 974.9 |
| 20260905072831 | 24 | 214 | 3.2 | 4.8 | 0.00 | 0.03 | 0.00 | 87 | 974.9 |
| 20260905072730 | 25 | 214 | 3.2 | 4.8 | 0.00 | 0.03 | 0.00 | 86 | 974.9 |
| 20260905072629 | 25 | 214 | 3.2 | 4.8 | 0.00 | 0.03 | 0.00 | 86 | 974.9 |
| 20260905072531 | 25 | 214 | 3.2 | 4.8 | 0.00 | 0.03 | 0.00 | 86 | 974.9 |
| 20260905072430 | 25 | 260 | 3.2 | 4.8 | 0.00 | 0.03 | 0.00 | 86 | 974.8 |
| 20260905072330 | 25 | 260 | 3.2 | 4.8 | 0.00 | 0.03 | 0.00 | 86 | 974.8 |
| 20260905072229 | 25 | 260 | 3.2 | 4.8 | 0.00 | 0.03 | 0.00 | 86 | 974.8 |
| 20260905072129 | 25 | 260 | 3.2 | 6.4 | 0.00 | 0.03 | 0.00 | 86 | 974.8 |
| 20260905072029 | 25 | 260 | 3.2 | 6.4 | 0.00 | 0.03 | 0.00 | 86 | 974.8 |
| 20260905071929 | 25 | 215 | 3.2 | 6.4 | 0.00 | 0.03 | 0.00 | 86 | 974.8 |
| 20260905071830 | 25 | 215 | 3.2 | 6.4 | 0.00 | 0.03 | 0.00 | 86 | 974.7 |
| 20260905071729 | 25 | 240 | 4.8 | 6.4 | 0.00 | 0.03 | 0.00 | 86 | 974.7 |
| 20260905071630 | 25 | 240 | 4.8 | 6.4 | 0.00 | 0.03 | 0.00 | 86 | 974.7 |
| 20260905071530 | 25 | 238 | 4.8 | 8.0 | 0.00 | 0.03 | 0.00 | 86 | 974.7 |
| 20260905071430 | 25 | 235 | 4.8 | 8.0 | 0.00 | 0.03 | 0.00 | 86 | 974.6 |
| 20260905071329 | 25 | 235 | 4.8 | 8.0 | 0.00 | 0.03 | 0.00 | 86 | 974.6 |
| 20260905071230 | 25 | 235 | 4.8 | 8.0 | 0.00 | 0.03 | 0.00 | 87 | 974.6 |
| 20260905071129 | 25 | 220 | 4.8 | 8.0 | 0.00 | 0.03 | 0.00 | 87 | 974.6 |
| 20260905071030 | 25 | 226 | 4.8 | 8.0 | 0.00 | 0.03 | 0.00 | 87 | 974.6 |
| 20260905070930 | 25 | 215 | 4.8 | 9.7 | 0.00 | 0.03 | 0.00 | 87 | 974.5 |
| 20260905070829 | 25 | 234 | 4.8 | 9.7 | 0.00 | 0.03 | 0.00 | 87 | 974.5 |
| 20260905070730 | 25 | 219 | 4.8 | 9.7 | 0.00 | 0.03 | 0.00 | 87 | 974.5 |
| 20260905070628 | 25 | 226 | 4.8 | 9.7 | 0.00 | 0.03 | 0.00 | 87 | 974.5 |
| 20260905070529 | 25 | 222 | 4.8 | 9.7 | 0.00 | 0.03 | 0.00 | 87 | 974.5 |
| 20260905070429 | 25 | 243 | 4.8 | 9.7 | 0.00 | 0.03 | 0.00 | 87 | 974.5 |
| 20260905070329 | 24 | 219 | 4.8 | 9.7 | 0.00 | 0.03 | 0.00 | 87 | 974.5 |
| 20260905070229 | 24 | 229 | 4.8 | 9.7 | 0.00 | 0.03 | 0.00 | 87 | 974.5 |
| 20260905070130 | 24 | 236 | 4.8 | 9.7 | 0.00 | 0.03 | 0.00 | 87 | 974.4 |
| 20260905070030 | 24 | 215 | 4.8 | 11.3 | 0.00 | 0.03 | 0.00 | 88 | 974.5 |
| 20260905065926 | 24 | 235 | 4.8 | 11.3 | 0.00 | 0.03 | 0.00 | 88 | 974.4 |
| 20260905065824 | 24 | 227 | 4.8 | 11.3 | 0.00 | 0.03 | 0.00 | 88 | 974.4 |
| 20260905065723 | 24 | 221 | 4.8 | 11.3 | 0.00 | 0.03 | 0.00 | 88 | 974.4 |
| 20260905065622 | 24 | 233 | 4.8 | 11.3 | 0.00 | 0.03 | 0.00 | 88 | 974.4 |
| 20260905065524 | 24 | 223 | 4.8 | 11.3 | 0.00 | 0.03 | 0.00 | 88 | 974.4 |
| 20260905065419 | 24 | 230 | 4.8 | 11.3 | 0.00 | 0.03 | 0.00 | 88 | 974.4 |